Time,TemperatureF,DewpointF,PressureIn,WindDirection,WindDirectionDegrees,WindSpeedMPH,WindSpeedGustMPH,Humidity,HourlyPrecipIn,Conditions,Clouds,dailyrainin,SoftwareType,DateUTC
2013-04-29 00:00:00,72.0,24.3,29.81,NNW,332,0.0,0.0,17,0.00,,---,0.00,VWS V14.01,2013-04-29 06:00:00,
2013-04-29 00:01:00,64.0,28.5,29.97,SE,124,0.0,0.0,26,0.00,,---,0.00,VWS V14.01,2013-04-29 06:01:00,
2013-04-29 00:02:00,73.5,-7.2,29.80,SW,236,0.0,15.3,4,0.00,,---,0.00,VWS V14.01,2013-04-29 06:02:00,
2013-04-29 00:04:00,75.6,-5.8,0.62,WSW,243,0.0,14.9,4,0.00,,---,0.00,VWS V14.01,2013-04-29 06:04:00,
2013-04-29 00:05:00,76.3,-5.3,29.79,NW,323,0.0,12.4,4,0.00,,---,1.99,VWS V14.01,2013-04-29 06:05:00,
2013-04-29 00:06:00,63.9,28.6,29.97,NE,42,0.0,4.3,26,0.00,,---,0.00,VWS V14.01,2013-04-29 06:06:00,
2013-04-29 00:07:00,75.4,21.5,29.79,WSW,243,0.0,13.2,13,0.00,,---,0.00,VWS V14.01,2013-04-29 06:07:00,
2013-04-29 00:09:00,76.9,-4.9,0.51,WNW,288,0.0,10.7,4,0.00,,---,0.00,VWS V14.01,2013-04-29 06:09:00,
2013-04-29 00:10:00,76.3,14.1,29.77,NE,34,5.5,15.8,9,0.00,,---,7.78,VWS V14.01,2013-04-29 06:10:00,
2013-04-29 00:11:00,63.7,28.9,29.97,NE,53,0.0,0.0,27,0.00,,---,0.00,VWS V14.01,2013-04-29 06:11:00,
2013-04-29 00:14:00,83.7,-0.2,0.45,North,359,0.0,6.0,4,0.00,,---,0.00,VWS V14.01,2013-04-29 06:14:00,
2013-04-29 00:15:00,75.3,-6.0,5.55,North,8,0.0,3.4,4,0.00,,---,0.15,VWS V14.01,2013-04-29 06:15:00,
2013-04-29 00:16:00,63.5,29.5,29.97,ENE,62,2.9,6.4,28,0.00,,---,0.00,VWS V14.01,2013-04-29 06:16:00,
2013-04-29 00:17:00,79.0,-3.5,29.74,SSW,212,3.4,7.3,4,0.00,,---,1.61,VWS V14.01,2013-04-29 06:17:00,
2013-04-29 00:18:00,78.6,-3.7,29.94,ENE,66,0.0,6.0,4,0.00,,---,7.53,VWS V14.01,2013-04-29 06:18:00,
2013-04-29 00:19:00,76.4,-5.2,0.60,South,177,0.0,12.6,4,0.00,,---,0.00,VWS V14.01,2013-04-29 06:19:00,
2013-04-29 00:20:00,80.2,-2.6,29.92,NW,309,0.0,7.3,4,0.00,,---,0.00,VWS V14.01,2013-04-29 06:20:00,
2013-04-29 00:21:00,63.3,29.7,29.97,ESE,117,0.0,3.3,28,0.00,,---,0.00,VWS V14.01,2013-04-29 06:21:00,
2013-04-29 00:24:00,76.4,-5.2,0.56,NW,323,0.0,11.7,4,0.00,,---,7.79,VWS V14.01,2013-04-29 06:24:00,
2013-04-29 00:25:00,76.5,-5.2,0.63,SSE,148,0.0,4.8,4,0.00,,---,0.00,VWS V14.01,2013-04-29 06:25:00,
2013-04-29 00:26:00,63.1,29.9,29.97,NE,48,3.4,5.0,28,0.00,,---,0.00,VWS V14.01,2013-04-29 06:26:00,
2013-04-29 00:28:00,76.4,13.9,29.77,North,11,9.6,14.4,9,0.00,,---,7.79,VWS V14.01,2013-04-29 06:28:00,
2013-04-29 00:30:00,75.1,-6.1,29.79,West,260,5.2,7.3,4,0.00,,---,0.00,VWS V14.01,2013-04-29 06:30:00,
2013-04-29 00:31:00,62.8,30.3,29.98,SE,125,3.4,5.2,29,0.00,,---,0.00,VWS V14.01,2013-04-29 06:31:00,
2013-04-29 00:32:00,76.2,-5.4,0.63,WNW,295,0.0,13.4,4,0.00,,---,0.00,VWS V14.01,2013-04-29 06:32:00,
2013-04-29 00:34:00,81.4,14.5,29.73,WSW,239,0.0,7.3,8,0.00,,---,0.00,VWS V14.01,2013-04-29 06:34:00,
2013-04-29 00:36:00,62.6,30.3,29.98,East,80,0.0,0.0,30,0.00,,---,0.00,VWS V14.01,2013-04-29 06:36:00,
2013-04-29 00:40:00,80.4,-2.5,0.43,SE,136,0.0,15.0,4,0.00,,---,0.00,VWS V14.01,2013-04-29 06:40:00,
2013-04-29 00:41:00,62.5,30.4,29.99,East,80,0.0,0.0,30,0.00,,---,0.00,VWS V14.01,2013-04-29 06:41:00,
2013-04-29 00:44:00,10.3,-51.8,0.00,North,0,4.8,13.5,4,0.00,,---,0.00,VWS V14.01,2013-04-29 06:44:00,
2013-04-29 00:46:00,62.3,30.6,29.99,ESE,104,0.0,4.7,30,0.00,,---,0.00,VWS V14.01,2013-04-29 06:46:00,
2013-04-29 00:47:00,78.6,12.1,29.74,ENE,66,0.0,2.9,8,0.00,,---,8.01,VWS V14.01,2013-04-29 06:47:00,
2013-04-29 00:50:00,77.3,-4.6,29.96,NNE,18,0.0,14.9,4,0.00,,---,0.00,VWS V14.01,2013-04-29 06:50:00,
2013-04-29 00:51:00,62.2,30.8,29.99,ENE,69,0.0,3.4,30,0.00,,---,0.00,VWS V14.01,2013-04-29 06:51:00,
2013-04-29 00:56:00,61.9,31.0,29.99,ESE,108,6.1,6.1,31,0.00,,---,0.00,VWS V14.01,2013-04-29 06:56:00,
2013-04-29 00:57:00,76.3,-5.3,0.52,NNE,32,6.3,10.9,4,0.00,,---,0.83,VWS V14.01,2013-04-29 06:57:00,
2013-04-29 00:58:00,80.0,-2.8,29.73,NE,42,0.0,6.0,4,0.00,,---,0.00,VWS V14.01,2013-04-29 06:58:00,
2013-04-29 00:59:00,76.5,-5.2,29.77,North,10,5.8,7.8,4,0.00,,---,0.00,VWS V14.01,2013-04-29 06:59:00,
2013-04-29 01:01:00,61.7,31.1,29.99,SE,132,4.4,6.6,31,0.00,,---,0.00,VWS V14.01,2013-04-29 07:01:00,
2013-04-29 01:02:00,78.6,9.8,29.74,ENE,66,2.4,6.0,7,0.00,,---,0.00,VWS V14.01,2013-04-29 07:02:00,
2013-04-29 01:05:00,76.7,14.7,29.76,NNW,345,6.2,7.0,9,0.00,,---,39.37,VWS V14.01,2013-04-29 07:05:00,
2013-04-29 01:06:00,61.6,31.2,29.98,ESE,114,8.6,9.8,32,0.00,,---,0.00,VWS V14.01,2013-04-29 07:06:00,
2013-04-29 01:07:00,77.6,-4.4,29.94,North,6,7.0,12.0,4,0.00,,---,0.07,VWS V14.01,2013-04-29 07:07:00,
2013-04-29 01:08:00,76.2,14.5,29.78,NNE,21,1.9,9.6,10,0.00,,---,0.00,VWS V14.01,2013-04-29 07:08:00,
2013-04-29 01:11:00,61.4,31.2,29.99,ESE,104,0.0,2.9,32,0.00,,---,0.00,VWS V14.01,2013-04-29 07:11:00,
2013-04-29 01:16:00,61.3,31.2,29.99,East,98,0.0,0.0,32,0.00,,---,0.00,VWS V14.01,2013-04-29 07:16:00,
2013-04-29 01:17:00,76.7,17.2,29.79,ENE,68,2.9,15.0,10,0.00,,---,0.00,VWS V14.01,2013-04-29 07:17:00,
2013-04-29 01:19:00,76.3,13.6,29.78,North,0,3.0,7.3,9,0.00,,---,0.00,VWS V14.01,2013-04-29 07:19:00,
2013-04-29 01:20:00,76.6,14.3,29.77,North,359,2.7,7.3,9,0.00,,---,0.00,VWS V14.01,2013-04-29 07:20:00,
2013-04-29 01:21:00,61.1,31.1,30.00,ESE,103,4.5,4.5,32,0.00,,---,0.00,VWS V14.01,2013-04-29 07:21:00,
2013-04-29 01:23:00,85.4,0.9,0.51,NNE,14,9.1,13.9,4,0.00,,---,0.00,VWS V14.01,2013-04-29 07:23:00,
2013-04-29 01:24:00,79.9,-2.8,0.44,SE,136,1.1,7.3,4,0.00,,---,0.00,VWS V14.01,2013-04-29 07:24:00,
2013-04-29 01:26:00,61.1,31.4,29.99,SSE,160,0.0,0.0,32,0.00,,---,0.00,VWS V14.01,2013-04-29 07:26:00,
2013-04-29 01:27:00,78.6,10.4,29.74,ENE,66,0.0,6.0,7,0.00,,---,0.62,VWS V14.01,2013-04-29 07:27:00,
2013-04-29 01:28:00,76.3,-5.3,29.79,WNW,301,2.4,14.9,4,0.00,,---,0.00,VWS V14.01,2013-04-29 07:28:00,
2013-04-29 01:29:00,10.3,-51.8,0.00,North,0,4.7,10.6,4,0.00,,---,0.00,VWS V14.01,2013-04-29 07:29:00,
2013-04-29 01:30:00,76.9,-4.9,0.47,NNW,330,1.0,10.0,4,0.00,,---,0.00,VWS V14.01,2013-04-29 07:30:00,
2013-04-29 01:31:00,61.0,30.8,30.00,SE,143,0.0,0.0,32,0.00,,---,0.00,VWS V14.01,2013-04-29 07:31:00,
2013-04-29 01:34:00,76.7,-5.0,29.76,NW,307,3.4,9.2,4,0.00,,---,7.52,VWS V14.01,2013-04-29 07:34:00,
2013-04-29 01:36:00,61.0,30.8,29.99,South,187,0.0,0.0,32,0.00,,---,0.00,VWS V14.01,2013-04-29 07:36:00,
2013-04-29 01:37:00,76.3,-5.3,0.51,SE,136,6.5,10.8,4,0.00,,---,0.00,VWS V14.01,2013-04-29 07:37:00,
2013-04-29 01:38:00,77.6,11.4,29.75,NW,316,3.5,7.8,8,0.00,,---,2.29,VWS V14.01,2013-04-29 07:38:00,
2013-04-29 01:41:00,60.9,30.8,29.99,South,187,0.0,0.0,32,0.00,,---,0.00,VWS V14.01,2013-04-29 07:41:00,
2013-04-29 01:43:00,77.6,11.4,29.76,NNW,346,6.4,6.4,8,0.00,,---,2.40,VWS V14.01,2013-04-29 07:43:00,
2013-04-29 01:45:00,76.6,14.6,29.79,East,91,3.4,8.5,9,0.00,,---,0.00,VWS V14.01,2013-04-29 07:45:00,
2013-04-29 01:46:00,60.8,30.9,29.99,South,186,0.0,0.0,32,0.00,,---,0.00,VWS V14.01,2013-04-29 07:46:00,
2013-04-29 01:47:00,76.4,-5.2,29.77,NNE,24,0.0,14.9,4,0.00,,---,0.00,VWS V14.01,2013-04-29 07:47:00,
2013-04-29 01:49:00,76.3,-5.3,0.51,NNW,339,0.6,11.2,4,0.00,,---,0.00,VWS V14.01,2013-04-29 07:49:00,
2013-04-29 01:51:00,60.6,31.0,29.99,SSE,159,0.0,5.2,32,0.00,,---,0.00,VWS V14.01,2013-04-29 07:51:00,
2013-04-29 01:53:00,76.4,-5.2,29.99,North,11,10.1,10.7,4,0.00,,---,0.00,VWS V14.01,2013-04-29 07:53:00,
2013-04-29 01:54:00,76.5,13.3,29.76,NW,322,9.9,10.9,9,0.00,,---,0.00,VWS V14.01,2013-04-29 07:54:00,
2013-04-29 01:55:00,83.0,0.0,29.72,SSW,204,2.9,6.0,0,0.00,,---,0.00,VWS V14.01,2013-04-29 07:55:00,
2013-04-29 01:56:00,60.4,30.9,29.98,ESE,118,0.0,0.0,33,0.00,,---,0.00,VWS V14.01,2013-04-29 07:56:00,
2013-04-29 01:58:00,71.8,22.9,29.81,North,10,0.0,0.0,16,0.00,,---,6.64,VWS V14.01,2013-04-29 07:58:00,
2013-04-29 02:01:00,60.1,30.9,29.97,SSE,165,0.0,3.5,33,0.00,,---,0.00,VWS V14.01,2013-04-29 08:01:00,
2013-04-29 02:02:00,76.4,14.2,29.78,NE,53,9.5,9.5,9,0.00,,---,0.00,VWS V14.01,2013-04-29 08:02:00,
2013-04-29 02:06:00,59.9,30.7,29.97,SSE,165,0.0,0.0,33,0.00,,---,0.00,VWS V14.01,2013-04-29 08:06:00,
2013-04-29 02:08:00,76.9,-4.9,0.46,NNE,32,11.2,12.6,4,0.00,,---,7.99,VWS V14.01,2013-04-29 08:08:00,
2013-04-29 02:10:00,76.6,13.3,29.77,East,91,5.1,10.5,9,0.00,,---,0.00,VWS V14.01,2013-04-29 08:10:00,
2013-04-29 02:11:00,59.6,31.0,29.97,South,180,0.0,0.0,34,0.00,,---,0.00,VWS V14.01,2013-04-29 08:11:00,
2013-04-29 02:13:00,76.3,-5.3,0.51,WNW,292,4.3,10.7,4,0.00,,---,0.00,VWS V14.01,2013-04-29 08:13:00,
2013-04-29 02:14:00,76.8,-5.0,0.49,SE,136,4.6,10.4,4,0.00,,---,0.00,VWS V14.01,2013-04-29 08:14:00,
2013-04-29 02:15:00,80.6,5.6,29.71,NNW,347,9.4,9.4,6,0.00,,---,0.00,VWS V14.01,2013-04-29 08:15:00,
2013-04-29 02:16:00,59.4,31.4,29.97,SE,125,3.0,3.0,34,0.00,,---,0.00,VWS V14.01,2013-04-29 08:16:00,
2013-04-29 02:18:00,76.4,24.1,29.79,SSW,194,2.7,13.2,14,1.25,,---,7.79,VWS V14.01,2013-04-29 08:18:00,
2013-04-29 02:21:00,59.2,31.8,29.97,SE,142,0.0,0.0,35,0.00,,---,0.00,VWS V14.01,2013-04-29 08:21:00,
2013-04-29 02:22:00,82.2,9.7,29.71,NNE,24,3.3,5.0,6,0.00,,---,0.00,VWS V14.01,2013-04-29 08:22:00,
2013-04-29 02:23:00,76.6,19.4,29.79,SSW,201,0.0,4.3,12,0.00,,---,7.81,VWS V14.01,2013-04-29 08:23:00,
2013-04-29 02:24:00,76.3,-5.3,0.50,NE,53,5.5,11.1,4,0.00,,---,0.00,VWS V14.01,2013-04-29 08:24:00,
2013-04-29 02:25:00,82.6,-1.0,29.72,SSW,204,0.0,0.0,4,0.00,,---,0.00,VWS V14.01,2013-04-29 08:25:00,
2013-04-29 02:26:00,58.9,32.1,29.97,South,179,0.0,0.0,36,0.00,,---,0.00,VWS V14.01,2013-04-29 08:26:00,
2013-04-29 02:27:00,76.3,-5.3,29.78,North,350,9.8,15.7,4,0.00,,---,7.69,VWS V14.01,2013-04-29 08:27:00,
2013-04-29 02:30:00,82.3,12.1,29.71,SSW,204,0.0,0.0,7,0.00,,---,0.00,VWS V14.01,2013-04-29 08:30:00,
2013-04-29 02:31:00,58.5,32.2,29.97,East,83,3.4,7.4,37,0.00,,---,0.00,VWS V14.01,2013-04-29 08:31:00,
2013-04-29 02:32:00,78.6,10.1,29.74,East,83,4.8,8.3,7,0.00,,---,99.99,VWS V14.01,2013-04-29 08:32:00,
2013-04-29 02:33:00,78.6,10.4,29.74,ESE,110,7.3,9.6,7,0.56,,---,0.00,VWS V14.01,2013-04-29 08:33:00,
2013-04-29 02:34:00,75.3,8.2,0.75,North,359,0.0,7.3,7,0.00,,---,0.00,VWS V14.01,2013-04-29 08:34:00,
2013-04-29 02:36:00,58.3,32.2,29.97,South,177,3.2,4.3,37,0.00,,---,0.00,VWS V14.01,2013-04-29 08:36:00,
2013-04-29 02:37:00,76.9,10.0,29.53,NNW,340,5.8,15.9,8,0.00,,---,0.00,VWS V14.01,2013-04-29 08:37:00,
2013-04-29 02:38:00,77.6,11.4,29.76,NNE,15,11.5,11.9,8,0.00,,---,7.92,VWS V14.01,2013-04-29 08:38:00,
2013-04-29 02:39:00,79.9,0.0,2.22,ENE,65,0.0,2.9,0,0.00,,---,0.00,VWS V14.01,2013-04-29 08:39:00,
2013-04-29 02:40:00,81.2,-18.2,29.73,West,260,0.0,5.2,2,0.00,,---,0.00,VWS V14.01,2013-04-29 08:40:00,
2013-04-29 02:41:00,58.1,32.2,29.97,SSE,165,0.0,4.8,37,0.00,,---,0.00,VWS V14.01,2013-04-29 08:41:00,
2013-04-29 02:42:00,76.9,10.9,29.76,NNW,336,8.1,10.9,8,0.00,,---,0.00,VWS V14.01,2013-04-29 08:42:00,
2013-04-29 02:43:00,77.5,12.4,29.76,NNE,28,3.0,14.9,8,0.00,,---,0.00,VWS V14.01,2013-04-29 08:43:00,
2013-04-29 02:44:00,77.3,12.6,29.76,NE,39,0.0,10.1,8,0.00,,---,7.52,VWS V14.01,2013-04-29 08:44:00,
2013-04-29 02:45:00,76.5,20.2,29.79,SW,232,0.0,13.4,12,0.00,,---,0.00,VWS V14.01,2013-04-29 08:45:00,
2013-04-29 02:46:00,57.9,32.2,29.97,SE,129,4.7,4.7,38,0.00,,---,0.00,VWS V14.01,2013-04-29 08:46:00,
2013-04-29 02:49:00,75.9,23.3,29.79,WSW,238,0.0,14.9,14,0.00,,---,7.74,VWS V14.01,2013-04-29 08:49:00,
2013-04-29 02:51:00,58.0,32.6,29.97,SSW,202,0.0,0.0,38,0.00,,---,0.00,VWS V14.01,2013-04-29 08:51:00,
2013-04-29 02:52:00,78.3,-20.0,29.74,East,100,3.4,3.4,2,0.00,,---,0.00,VWS V14.01,2013-04-29 08:52:00,
2013-04-29 02:53:00,75.3,22.5,29.79,WSW,243,0.0,7.3,14,0.00,,---,7.68,VWS V14.01,2013-04-29 08:53:00,
2013-04-29 02:56:00,57.7,32.5,29.97,SW,225,0.0,0.0,38,0.00,,---,0.00,VWS V14.01,2013-04-29 08:56:00,
2013-04-29 03:01:00,57.6,32.5,29.97,SW,225,0.0,0.0,38,0.00,,---,0.00,VWS V14.01,2013-04-29 09:01:00,
2013-04-29 03:06:00,57.4,32.2,29.96,SW,225,0.0,0.0,38,0.00,,---,0.00,VWS V14.01,2013-04-29 09:06:00,
2013-04-29 03:11:00,57.2,32.0,29.96,SSE,152,2.8,2.8,38,0.00,,---,0.00,VWS V14.01,2013-04-29 09:11:00,
2013-04-29 03:14:00,76.7,19.5,29.79,SSW,201,0.0,12.2,12,0.00,,---,0.97,VWS V14.01,2013-04-29 09:14:00,
2013-04-29 03:16:00,56.8,32.1,29.96,South,191,0.0,0.0,39,0.00,,---,0.00,VWS V14.01,2013-04-29 09:16:00,
2013-04-29 03:19:00,68.9,17.8,29.68,West,280,0.0,0.0,14,0.00,,---,7.04,VWS V14.01,2013-04-29 09:19:00,
2013-04-29 03:21:00,56.5,32.2,29.96,SSE,160,5.3,5.3,40,0.00,,---,0.00,VWS V14.01,2013-04-29 09:21:00,
2013-04-29 03:25:00,76.9,14.8,29.76,WNW,288,0.0,10.7,9,0.00,,---,7.84,VWS V14.01,2013-04-29 09:25:00,
2013-04-29 03:26:00,56.3,32.3,29.96,SW,214,0.0,0.0,40,0.00,,---,0.00,VWS V14.01,2013-04-29 09:26:00,
2013-04-29 03:28:00,76.8,13.0,29.77,WNW,292,0.0,10.4,9,0.00,,---,7.83,VWS V14.01,2013-04-29 09:28:00,
2013-04-29 03:31:00,56.2,32.5,29.96,SSW,194,0.0,5.5,40,0.00,,---,0.00,VWS V14.01,2013-04-29 09:31:00,
2013-04-29 03:33:00,76.2,22.4,29.79,WNW,300,2.4,13.4,13,0.00,,---,7.77,VWS V14.01,2013-04-29 09:33:00,
2013-04-29 03:34:00,81.6,10.6,29.71,WNW,301,0.0,13.3,7,0.00,,---,8.31,VWS V14.01,2013-04-29 09:34:00,
2013-04-29 03:36:00,55.9,32.4,29.95,SW,217,0.0,0.0,41,0.00,,---,0.00,VWS V14.01,2013-04-29 09:36:00,
2013-04-29 03:41:00,55.7,32.4,29.95,SW,217,0.0,0.0,41,0.00,,---,0.00,VWS V14.01,2013-04-29 09:41:00,
2013-04-29 03:42:00,68.2,17.7,2.06,North,0,0.0,11.6,14,0.00,,---,0.00,VWS V14.01,2013-04-29 09:42:00,
2013-04-29 03:46:00,55.6,32.3,29.95,South,170,3.3,5.7,41,0.00,,---,0.00,VWS V14.01,2013-04-29 09:46:00,
2013-04-29 03:47:00,4.2,-41.0,29.78,North,0,15.6,15.6,10,0.00,,---,7.78,VWS V14.01,2013-04-29 09:47:00,
2013-04-29 03:48:00,78.9,10.9,29.74,NW,321,3.0,5.7,7,0.00,,---,8.04,VWS V14.01,2013-04-29 09:48:00,
2013-04-29 03:50:00,76.3,20.6,29.79,NW,323,0.0,2.9,12,0.00,,---,7.78,VWS V14.01,2013-04-29 09:50:00,
2013-04-29 03:51:00,55.5,32.4,29.95,SW,222,0.0,2.5,41,0.00,,---,0.00,VWS V14.01,2013-04-29 09:51:00,
2013-04-29 03:56:00,55.2,32.3,29.95,SW,222,0.0,0.0,42,0.00,,---,0.00,VWS V14.01,2013-04-29 09:56:00,
2013-04-29 03:57:00,14.4,0.0,0.35,NNW,336,10.4,12.6,0,0.00,,---,7.84,VWS V14.01,2013-04-29 09:57:00,
2013-04-29 03:58:00,76.9,10.9,29.76,NW,325,5.1,5.5,8,0.00,,---,0.58,VWS V14.01,2013-04-29 09:58:00,
2013-04-29 04:00:00,79.9,12.8,29.73,NNW,338,0.0,0.0,8,0.00,,---,8.14,VWS V14.01,2013-04-29 10:00:00,
2013-04-29 04:01:00,55.1,32.2,29.95,SW,222,0.0,0.0,42,0.00,,---,0.00,VWS V14.01,2013-04-29 10:01:00,
2013-04-29 04:03:00,76.3,14.4,29.78,NNW,342,0.0,15.7,9,0.00,,---,7.78,VWS V14.01,2013-04-29 10:03:00,
2013-04-29 04:05:00,78.2,14.6,29.74,NNW,345,0.0,7.3,9,0.00,,---,7.98,VWS V14.01,2013-04-29 10:05:00,
2013-04-29 04:06:00,55.0,32.3,29.95,SW,222,0.0,0.0,42,0.00,,---,0.00,VWS V14.01,2013-04-29 10:06:00,
2013-04-29 04:11:00,54.9,32.4,29.94,SW,222,0.0,0.0,42,0.00,,---,0.00,VWS V14.01,2013-04-29 10:11:00,
2013-04-29 04:15:00,76.3,13.4,29.77,North,359,6.0,9.8,9,0.00,,---,7.78,VWS V14.01,2013-04-29 10:15:00,
2013-04-29 04:16:00,54.8,32.4,29.94,SW,222,0.0,0.0,42,0.00,,---,0.00,VWS V14.01,2013-04-29 10:16:00,
2013-04-29 04:21:00,54.5,32.5,29.93,SW,222,0.0,0.0,43,0.00,,---,0.00,VWS V14.01,2013-04-29 10:21:00,
2013-04-29 04:26:00,54.4,32.6,29.93,SW,222,0.0,0.0,43,0.00,,---,0.00,VWS V14.01,2013-04-29 10:26:00,
2013-04-29 04:27:00,66.8,22.9,30.07,West,280,0.0,0.7,19,0.00,,---,0.00,VWS V14.01,2013-04-29 10:27:00,
2013-04-29 04:31:00,54.1,32.5,29.93,SW,222,0.0,0.0,44,0.00,,---,0.00,VWS V14.01,2013-04-29 10:31:00,
2013-04-29 04:36:00,53.9,32.3,29.93,SW,222,0.0,0.0,44,0.00,,---,0.00,VWS V14.01,2013-04-29 10:36:00,
2013-04-29 04:41:00,53.5,32.1,29.93,SW,222,0.0,0.0,44,0.00,,---,0.00,VWS V14.01,2013-04-29 10:41:00,
2013-04-29 04:46:00,53.2,32.3,29.93,SW,222,0.0,0.0,45,0.00,,---,0.00,VWS V14.01,2013-04-29 10:46:00,
2013-04-29 04:51:00,53.0,32.3,29.93,SW,222,0.0,0.0,45,0.00,,---,0.00,VWS V14.01,2013-04-29 10:51:00,
2013-04-29 04:56:00,53.0,32.5,29.92,SW,222,0.0,0.0,46,0.00,,---,0.00,VWS V14.01,2013-04-29 10:56:00,
2013-04-29 05:01:00,52.9,32.7,29.92,SW,222,0.0,0.0,46,0.00,,---,0.00,VWS V14.01,2013-04-29 11:01:00,
2013-04-29 05:06:00,52.8,32.2,29.92,WSW,243,5.2,5.7,45,0.00,,---,0.00,VWS V14.01,2013-04-29 11:06:00,
2013-04-29 05:11:00,52.7,32.4,29.92,SW,228,0.0,0.0,46,0.00,,---,0.00,VWS V14.01,2013-04-29 11:11:00,
2013-04-29 05:16:00,52.5,32.4,29.92,SW,228,0.0,0.0,46,0.00,,---,0.00,VWS V14.01,2013-04-29 11:16:00,
2013-04-29 05:21:00,52.2,32.4,29.92,SW,228,0.0,0.0,47,0.00,,---,0.00,VWS V14.01,2013-04-29 11:21:00,
2013-04-29 05:26:00,52.0,32.4,29.92,SW,228,0.0,0.0,47,0.00,,---,0.00,VWS V14.01,2013-04-29 11:26:00,
2013-04-29 05:31:00,51.8,32.4,29.91,SW,221,0.0,0.0,47,0.00,,---,0.00,VWS V14.01,2013-04-29 11:31:00,
2013-04-29 05:36:00,51.6,32.6,29.91,SSW,193,0.0,0.0,48,0.00,,---,0.00,VWS V14.01,2013-04-29 11:36:00,
2013-04-29 05:41:00,51.6,32.5,29.91,SSW,193,0.0,0.0,48,0.00,,---,0.00,VWS V14.01,2013-04-29 11:41:00,
2013-04-29 05:46:00,51.4,32.6,29.91,South,191,0.0,0.0,48,0.00,,---,0.00,VWS V14.01,2013-04-29 11:46:00,
2013-04-29 05:51:00,51.6,32.8,29.90,West,260,4.8,4.8,48,0.00,,---,0.00,VWS V14.01,2013-04-29 11:51:00,
2013-04-29 05:56:00,51.6,32.5,29.90,SW,217,0.0,0.0,48,0.00,,---,0.00,VWS V14.01,2013-04-29 11:56:00,
2013-04-29 06:01:00,51.7,32.8,29.90,WSW,253,0.0,0.0,48,0.00,,---,0.00,VWS V14.01,2013-04-29 12:01:00,
2013-04-29 06:06:00,51.7,32.8,29.90,WSW,239,7.2,7.3,48,0.00,,---,0.00,VWS V14.01,2013-04-29 12:06:00,
2013-04-29 06:11:00,51.8,32.8,29.90,SW,217,0.0,0.0,48,0.00,,---,0.00,VWS V14.01,2013-04-29 12:11:00,
2013-04-29 06:16:00,51.9,33.0,29.89,SSW,204,5.0,10.1,48,0.00,,---,0.00,VWS V14.01,2013-04-29 12:16:00,
2013-04-29 06:21:00,51.7,33.1,29.89,SW,236,6.4,6.4,49,0.00,,---,0.00,VWS V14.01,2013-04-29 12:21:00,
2013-04-29 06:26:00,51.8,33.3,29.89,SSE,163,3.1,6.5,49,0.00,,---,0.00,VWS V14.01,2013-04-29 12:26:00,
2013-04-29 06:31:00,51.6,33.4,29.89,South,176,0.0,4.8,50,0.00,,---,0.00,VWS V14.01,2013-04-29 12:31:00,
2013-04-29 06:36:00,51.7,33.6,29.89,SW,218,0.0,0.0,50,0.00,,---,0.00,VWS V14.01,2013-04-29 12:36:00,
2013-04-29 06:41:00,51.8,33.8,29.89,SW,218,0.0,0.0,50,0.00,,---,0.00,VWS V14.01,2013-04-29 12:41:00,
2013-04-29 06:46:00,52.1,34.0,29.89,SW,218,0.0,0.0,50,0.00,,---,0.00,VWS V14.01,2013-04-29 12:46:00,
2013-04-29 06:51:00,52.4,34.2,29.89,SW,229,0.0,0.0,50,0.00,,---,0.00,VWS V14.01,2013-04-29 12:51:00,
2013-04-29 06:56:00,52.8,34.4,29.89,SW,229,0.0,0.0,49,0.00,,---,0.00,VWS V14.01,2013-04-29 12:56:00,
2013-04-29 07:01:00,52.8,34.1,29.89,WSW,243,4.5,4.5,49,0.00,,---,0.00,VWS V14.01,2013-04-29 13:01:00,
2013-04-29 07:11:00,53.3,34.2,29.89,SW,226,5.7,5.7,48,0.00,,---,0.00,VWS V14.01,2013-04-29 13:11:00,
2013-04-29 07:12:00,53.3,34.1,29.89,SW,226,0.0,5.7,48,0.00,,---,0.00,VWS V14.01,2013-04-29 13:12:00,
2013-04-29 07:13:00,53.3,34.2,29.89,SW,226,5.7,5.7,48,0.00,,---,0.00,VWS V14.01,2013-04-29 13:13:00,
2013-04-29 07:14:00,53.4,34.2,29.89,SW,236,5.1,5.1,48,0.00,,---,0.00,VWS V14.01,2013-04-29 13:14:00,
2013-04-29 07:15:00,53.5,34.2,29.89,SW,228,0.0,0.0,48,0.00,,---,0.00,VWS V14.01,2013-04-29 13:15:00,
2013-04-29 07:16:00,53.5,34.2,29.89,WSW,245,5.8,5.8,48,0.00,,---,0.00,VWS V14.01,2013-04-29 13:16:00,
2013-04-29 07:17:00,53.7,34.3,29.89,SSW,204,0.0,0.0,48,0.00,,---,0.00,VWS V14.01,2013-04-29 13:17:00,
2013-04-29 07:18:00,53.5,34.2,29.89,WSW,245,5.8,5.8,48,0.00,,---,0.00,VWS V14.01,2013-04-29 13:18:00,
2013-04-29 07:19:00,53.7,34.2,29.89,SSW,204,0.0,0.0,47,0.00,,---,0.00,VWS V14.01,2013-04-29 13:19:00,
2013-04-29 07:20:00,53.9,34.3,29.89,West,260,0.0,4.9,47,0.00,,---,0.00,VWS V14.01,2013-04-29 13:20:00,
2013-04-29 07:21:00,53.9,34.2,29.89,West,264,0.0,4.3,47,0.00,,---,0.00,VWS V14.01,2013-04-29 13:21:00,
2013-04-29 07:22:00,54.0,34.2,29.89,West,264,0.0,0.0,47,0.00,,---,0.00,VWS V14.01,2013-04-29 13:22:00,
2013-04-29 07:23:00,53.9,34.3,29.89,West,260,0.0,4.9,47,0.00,,---,0.00,VWS V14.01,2013-04-29 13:23:00,
2013-04-29 07:24:00,54.1,34.1,29.88,SW,214,4.1,4.3,46,0.00,,---,0.00,VWS V14.01,2013-04-29 13:24:00,
2013-04-29 07:25:00,54.2,33.9,29.88,SW,219,4.7,6.4,46,0.00,,---,0.00,VWS V14.01,2013-04-29 13:25:00,
2013-04-29 07:26:00,54.3,33.9,29.88,WSW,242,5.1,5.1,46,0.00,,---,0.00,VWS V14.01,2013-04-29 13:26:00,
2013-04-29 07:27:00,54.4,34.0,29.88,WSW,250,0.0,0.0,46,0.00,,---,0.00,VWS V14.01,2013-04-29 13:27:00,
2013-04-29 07:28:00,54.2,34.1,29.88,WSW,256,3.1,4.3,46,0.00,,---,0.00,VWS V14.01,2013-04-29 13:28:00,
2013-04-29 07:29:00,54.5,33.8,29.88,WSW,240,0.0,3.0,45,0.00,,---,0.00,VWS V14.01,2013-04-29 13:29:00,
2013-04-29 07:30:00,54.6,33.9,29.88,WSW,246,5.8,6.6,45,0.00,,---,0.00,VWS V14.01,2013-04-29 13:30:00,
2013-04-29 07:31:00,54.7,33.6,29.88,SSW,201,0.0,0.0,45,0.00,,---,0.00,VWS V14.01,2013-04-29 13:31:00,
2013-04-29 07:32:00,54.8,33.7,29.88,West,278,4.3,4.3,45,0.00,,---,0.00,VWS V14.01,2013-04-29 13:32:00,
2013-04-29 07:33:00,54.5,33.8,29.88,WSW,240,0.0,3.0,45,0.00,,---,0.00,VWS V14.01,2013-04-29 13:33:00,
2013-04-29 07:34:00,54.9,33.5,29.88,SSW,202,0.0,0.0,44,0.00,,---,0.00,VWS V14.01,2013-04-29 13:34:00,
2013-04-29 07:35:00,55.1,33.5,29.88,SSW,202,0.0,0.0,44,0.00,,---,0.00,VWS V14.01,2013-04-29 13:35:00,
2013-04-29 07:36:00,55.2,33.6,29.88,SSW,201,0.0,4.3,44,0.00,,---,0.00,VWS V14.01,2013-04-29 13:36:00,
2013-04-29 07:37:00,55.3,33.7,29.88,WSW,256,0.0,0.0,44,0.00,,---,0.00,VWS V14.01,2013-04-29 13:37:00,
2013-04-29 07:38:00,55.0,33.5,29.88,SSW,202,0.0,0.0,44,0.00,,---,0.00,VWS V14.01,2013-04-29 13:38:00,
2013-04-29 07:39:00,55.4,33.5,29.88,SW,218,0.0,0.0,43,0.00,,---,0.00,VWS V14.01,2013-04-29 13:39:00,
2013-04-29 07:40:00,55.5,33.4,29.88,SW,218,0.0,0.0,43,0.00,,---,0.00,VWS V14.01,2013-04-29 13:40:00,
2013-04-29 07:41:00,55.6,33.6,29.88,SW,218,0.0,0.0,43,0.00,,---,0.00,VWS V14.01,2013-04-29 13:41:00,
2013-04-29 07:42:00,55.6,33.7,29.88,SW,214,0.0,4.2,43,0.00,,---,0.00,VWS V14.01,2013-04-29 13:42:00,
2013-04-29 07:43:00,55.5,33.4,29.88,SW,218,0.0,0.0,43,0.00,,---,0.00,VWS V14.01,2013-04-29 13:43:00,
2013-04-29 07:44:00,55.8,34.0,29.88,SW,214,0.0,0.0,44,0.00,,---,0.00,VWS V14.01,2013-04-29 13:44:00,
2013-04-29 07:45:00,55.8,33.7,29.88,SW,214,0.0,0.0,43,0.00,,---,0.00,VWS V14.01,2013-04-29 13:45:00,
2013-04-29 07:46:00,55.9,33.7,29.87,SW,214,0.0,0.0,43,0.00,,---,0.00,VWS V14.01,2013-04-29 13:46:00,
2013-04-29 07:47:00,56.0,33.6,29.87,WSW,255,5.0,6.3,43,0.00,,---,0.00,VWS V14.01,2013-04-29 13:47:00,
2013-04-29 07:48:00,55.9,33.8,29.87,SW,214,0.0,0.0,43,0.00,,---,0.00,VWS V14.01,2013-04-29 13:48:00,
2013-04-29 07:49:00,56.2,33.7,29.87,WSW,255,0.0,0.0,42,0.00,,---,0.00,VWS V14.01,2013-04-29 13:49:00,
2013-04-29 07:50:00,56.2,33.7,29.87,WSW,255,0.0,0.0,42,0.00,,---,0.00,VWS V14.01,2013-04-29 13:50:00,
2013-04-29 07:51:00,56.3,33.6,29.87,WSW,255,0.0,0.0,42,0.00,,---,0.00,VWS V14.01,2013-04-29 13:51:00,
2013-04-29 07:52:00,56.4,33.6,29.87,SW,214,3.5,4.3,42,0.00,,---,0.00,VWS V14.01,2013-04-29 13:52:00,
2013-04-29 07:53:00,56.3,33.6,29.87,WSW,255,0.0,0.0,42,0.00,,---,0.00,VWS V14.01,2013-04-29 13:53:00,
2013-04-29 07:54:00,56.6,33.7,29.87,SW,225,0.0,0.0,42,0.00,,---,0.00,VWS V14.01,2013-04-29 13:54:00,
2013-04-29 07:55:00,56.7,33.6,29.87,SW,225,0.0,0.0,42,0.00,,---,0.00,VWS V14.01,2013-04-29 13:55:00,
2013-04-29 07:56:00,56.8,33.6,29.87,West,264,3.0,4.8,41,0.00,,---,0.00,VWS V14.01,2013-04-29 13:56:00,
2013-04-29 07:57:00,56.9,33.3,29.87,WSW,248,3.2,6.6,41,0.00,,---,0.00,VWS V14.01,2013-04-29 13:57:00,
2013-04-29 07:58:00,56.8,33.2,29.87,WSW,250,5.2,6.6,41,0.00,,---,0.00,VWS V14.01,2013-04-29 13:58:00,
2013-04-29 07:59:00,57.2,33.6,29.87,WSW,248,0.0,0.0,41,0.00,,---,0.00,VWS V14.01,2013-04-29 13:59:00,
2013-04-29 08:00:00,57.3,33.6,29.87,WSW,257,2.9,6.2,41,0.00,,---,0.00,VWS V14.01,2013-04-29 14:00:00,
2013-04-29 08:01:00,57.4,33.5,29.87,SSW,198,0.0,4.6,40,0.00,,---,0.00,VWS V14.01,2013-04-29 14:01:00,
2013-04-29 08:02:00,57.6,33.7,29.87,SSW,198,0.0,0.0,40,0.00,,---,0.00,VWS V14.01,2013-04-29 14:02:00,
2013-04-29 08:03:00,57.6,33.6,29.87,SSW,207,5.3,8.1,40,0.00,,---,0.00,VWS V14.01,2013-04-29 14:03:00,
2013-04-29 08:04:00,57.8,33.6,29.87,SW,228,6.7,8.7,40,0.00,,---,0.00,VWS V14.01,2013-04-29 14:04:00,
2013-04-29 08:05:00,58.0,33.7,29.86,South,177,0.0,1.8,40,0.00,,---,0.00,VWS V14.01,2013-04-29 14:05:00,
2013-04-29 08:06:00,58.0,33.7,29.87,South,177,0.0,0.0,40,0.00,,---,0.00,VWS V14.01,2013-04-29 14:06:00,
2013-04-29 08:07:00,58.2,33.6,29.87,SSW,207,0.0,3.0,39,0.00,,---,0.00,VWS V14.01,2013-04-29 14:07:00,
2013-04-29 08:08:00,58.2,33.6,29.87,SSW,207,0.0,0.0,39,0.00,,---,0.00,VWS V14.01,2013-04-29 14:08:00,
2013-04-29 08:09:00,58.5,34.0,29.87,SSW,207,0.0,0.0,40,0.00,,---,0.00,VWS V14.01,2013-04-29 14:09:00,
2013-04-29 08:10:00,58.7,34.1,29.87,SSW,207,0.0,0.0,39,0.00,,---,0.00,VWS V14.01,2013-04-29 14:10:00,
2013-04-29 08:11:00,58.8,34.0,29.86,SSW,207,0.0,0.0,39,0.00,,---,0.00,VWS V14.01,2013-04-29 14:11:00,
2013-04-29 08:12:00,58.9,34.3,29.86,SSW,207,0.0,0.0,39,0.00,,---,0.00,VWS V14.01,2013-04-29 14:12:00,
2013-04-29 08:13:00,58.9,34.3,29.86,SSW,207,0.0,0.0,40,0.00,,---,0.00,VWS V14.01,2013-04-29 14:13:00,
2013-04-29 08:14:00,59.2,34.5,29.86,SSW,207,0.0,0.0,39,0.00,,---,0.00,VWS V14.01,2013-04-29 14:14:00,
2013-04-29 08:15:00,59.3,34.2,29.86,SSW,207,0.0,0.0,39,0.00,,---,0.00,VWS V14.01,2013-04-29 14:15:00,
2013-04-29 08:16:00,59.4,34.3,29.86,SSW,207,0.0,0.0,39,0.00,,---,0.00,VWS V14.01,2013-04-29 14:16:00,
2013-04-29 08:17:00,59.6,34.6,29.86,SSW,207,0.0,0.0,39,0.00,,---,0.00,VWS V14.01,2013-04-29 14:17:00,
2013-04-29 08:18:00,59.6,34.6,29.86,SW,236,0.0,3.2,39,0.00,,---,0.00,VWS V14.01,2013-04-29 14:18:00,
2013-04-29 08:19:00,59.8,34.9,29.86,WSW,253,5.7,7.1,39,0.00,,---,0.00,VWS V14.01,2013-04-29 14:19:00,
2013-04-29 08:20:00,60.0,34.9,29.86,West,271,0.0,4.5,39,0.00,,---,0.00,VWS V14.01,2013-04-29 14:20:00,
2013-04-29 08:21:00,60.0,34.5,29.86,WSW,249,4.7,4.7,38,0.00,,---,0.00,VWS V14.01,2013-04-29 14:21:00,
2013-04-29 08:22:00,60.1,34.4,29.86,West,266,0.0,0.0,38,0.00,,---,0.00,VWS V14.01,2013-04-29 14:22:00,
2013-04-29 08:23:00,60.2,34.5,29.86,West,266,0.0,0.0,38,0.00,,---,0.00,VWS V14.01,2013-04-29 14:23:00,
2013-04-29 08:24:00,60.3,34.5,29.86,SSW,201,3.3,5.1,38,0.00,,---,0.00,VWS V14.01,2013-04-29 14:24:00,
2013-04-29 08:25:00,60.5,34.7,29.86,South,177,0.0,0.0,38,0.00,,---,0.00,VWS V14.01,2013-04-29 14:25:00,
2013-04-29 08:26:00,60.6,34.7,29.86,South,177,0.0,0.0,38,0.00,,---,0.00,VWS V14.01,2013-04-29 14:26:00,
2013-04-29 08:27:00,60.7,34.7,29.86,South,177,0.0,0.0,38,0.00,,---,0.00,VWS V14.01,2013-04-29 14:27:00,
2013-04-29 08:28:00,60.8,34.9,29.86,South,177,0.0,0.0,38,0.00,,---,0.00,VWS V14.01,2013-04-29 14:28:00,
2013-04-29 08:29:00,60.9,35.0,29.86,South,177,0.0,0.0,38,0.00,,---,0.00,VWS V14.01,2013-04-29 14:29:00,
2013-04-29 08:30:00,61.0,34.8,29.85,South,177,0.0,0.0,37,0.00,,---,0.00,VWS V14.01,2013-04-29 14:30:00,
2013-04-29 08:31:00,61.1,34.9,29.86,South,177,0.0,0.0,37,0.00,,---,0.00,VWS V14.01,2013-04-29 14:31:00,
2013-04-29 08:32:00,72.0,24.3,29.81,NNW,332,0.0,0.0,17,0.00,,---,0.00,VWS V14.01,2013-04-29 14:32:00,
2013-04-29 08:33:00,61.1,34.9,29.86,South,177,0.0,0.0,37,0.00,,---,0.00,VWS V14.01,2013-04-29 14:33:00,
2013-04-29 08:34:00,61.5,34.7,29.85,South,177,0.0,0.0,37,0.00,,---,0.00,VWS V14.01,2013-04-29 14:34:00,
2013-04-29 08:35:00,61.6,34.8,29.85,South,177,0.0,0.0,36,0.00,,---,0.00,VWS V14.01,2013-04-29 14:35:00,
2013-04-29 08:36:00,76.5,21.9,29.79,WNW,288,3.3,13.0,13,0.00,,---,0.00,VWS V14.01,2013-04-29 14:36:00,
2013-04-29 08:37:00,61.8,34.7,29.84,South,177,0.0,0.0,36,0.00,,---,0.00,VWS V14.01,2013-04-29 14:37:00,
2013-04-29 08:38:00,61.5,34.7,29.85,South,177,0.0,0.0,37,0.00,,---,0.00,VWS V14.01,2013-04-29 14:38:00,
2013-04-29 08:39:00,62.0,34.9,29.84,WSW,238,0.0,0.0,36,0.00,,---,0.00,VWS V14.01,2013-04-29 14:39:00,
2013-04-29 08:40:00,62.1,34.8,29.84,WSW,238,0.0,0.0,36,0.00,,---,0.00,VWS V14.01,2013-04-29 14:40:00,
2013-04-29 08:41:00,76.2,22.5,29.79,WNW,295,0.0,5.2,13,0.00,,---,99.99,VWS V14.01,2013-04-29 14:41:00,
2013-04-29 08:42:00,76.3,15.5,29.78,North,3,10.9,14.9,10,0.00,,---,99.99,VWS V14.01,2013-04-29 14:42:00,
2013-04-29 08:43:00,62.0,34.8,29.84,WSW,238,0.0,0.0,36,0.00,,---,0.00,VWS V14.01,2013-04-29 14:43:00,
2013-04-29 08:44:00,76.5,22.0,29.79,SSW,194,0.0,13.3,13,0.00,,---,99.99,VWS V14.01,2013-04-29 14:44:00,
2013-04-29 08:45:00,62.5,34.4,29.84,WSW,239,0.0,0.0,35,0.00,,---,0.00,VWS V14.01,2013-04-29 14:45:00,
2013-04-29 08:46:00,62.6,34.2,29.84,SSW,210,5.2,5.2,34,0.00,,---,0.00,VWS V14.01,2013-04-29 14:46:00,
2013-04-29 08:47:00,76.2,14.0,29.78,NNE,20,10.3,10.7,9,0.00,,---,0.00,VWS V14.01,2013-04-29 14:47:00,
2013-04-29 08:48:00,62.5,34.4,29.84,WSW,239,0.0,0.0,35,0.00,,---,0.00,VWS V14.01,2013-04-29 14:48:00,
2013-04-29 08:49:00,62.9,33.8,29.84,SW,214,2.9,3.1,34,0.00,,---,0.00,VWS V14.01,2013-04-29 14:49:00,
2013-04-29 08:50:00,63.1,34.0,29.84,SW,214,0.0,0.0,34,0.00,,---,0.00,VWS V14.01,2013-04-29 14:50:00,
2013-04-29 08:51:00,63.3,33.8,29.84,SW,214,0.0,0.0,33,0.00,,---,0.00,VWS V14.01,2013-04-29 14:51:00,
2013-04-29 08:52:00,63.3,33.7,29.84,SW,214,0.0,0.0,33,0.00,,---,0.00,VWS V14.01,2013-04-29 14:52:00,
2013-04-29 08:53:00,63.3,33.8,29.84,SW,214,0.0,0.0,33,0.00,,---,0.00,VWS V14.01,2013-04-29 14:53:00,
2013-04-29 08:54:00,63.6,33.4,29.84,SW,214,4.1,4.1,32,0.00,,---,0.00,VWS V14.01,2013-04-29 14:54:00,
2013-04-29 08:55:00,63.7,33.3,29.84,NW,321,3.5,5.8,32,0.00,,---,0.00,VWS V14.01,2013-04-29 14:55:00,
2013-04-29 08:56:00,63.9,33.3,29.84,WSW,249,3.1,3.1,32,0.00,,---,0.00,VWS V14.01,2013-04-29 14:56:00,
2013-04-29 08:57:00,76.5,23.3,29.79,South,184,0.0,13.4,14,0.00,,---,39.37,VWS V14.01,2013-04-29 14:57:00,
2013-04-29 08:58:00,63.9,33.2,29.84,WSW,249,0.0,3.1,32,0.00,,---,0.00,VWS V14.01,2013-04-29 14:58:00,
2013-04-29 08:59:00,72.0,19.6,29.81,North,359,0.0,0.0,14,0.00,,---,0.00,VWS V14.01,2013-04-29 14:59:00,
2013-04-29 09:00:00,64.3,33.3,29.84,SSW,195,0.0,0.0,31,0.00,,---,0.00,VWS V14.01,2013-04-29 15:00:00,
2013-04-29 09:01:00,76.3,13.9,29.77,North,359,0.0,10.7,9,0.00,,---,1.72,VWS V14.01,2013-04-29 15:01:00,
2013-04-29 09:02:00,64.5,33.5,29.84,SSW,208,0.0,0.0,31,0.00,,---,0.00,VWS V14.01,2013-04-29 15:02:00,
2013-04-29 09:03:00,64.3,33.2,29.84,SSW,195,0.0,0.0,31,0.00,,---,0.00,VWS V14.01,2013-04-29 15:03:00,
2013-04-29 09:04:00,64.8,34.1,29.84,SW,217,0.0,0.0,32,0.00,,---,0.00,VWS V14.01,2013-04-29 15:04:00,
2013-04-29 09:05:00,64.9,34.3,29.84,SW,217,0.0,0.0,32,0.00,,---,0.00,VWS V14.01,2013-04-29 15:05:00,
2013-04-29 09:06:00,64.9,34.2,29.84,SW,217,0.0,0.0,32,0.00,,---,0.00,VWS V14.01,2013-04-29 15:06:00,
2013-04-29 09:07:00,65.1,34.7,29.84,SW,217,0.0,0.0,32,0.00,,---,0.00,VWS V14.01,2013-04-29 15:07:00,
2013-04-29 09:08:00,64.6,33.8,29.84,SW,217,7.5,8.3,32,0.00,,---,0.00,VWS V14.01,2013-04-29 15:08:00,
2013-04-29 09:09:00,65.3,35.0,29.84,South,188,0.0,4.2,32,0.00,,---,0.00,VWS V14.01,2013-04-29 15:09:00,
2013-04-29 09:10:00,65.4,34.9,29.84,South,188,0.0,3.3,32,0.00,,---,0.00,VWS V14.01,2013-04-29 15:10:00,
2013-04-29 09:11:00,65.4,34.5,29.84,SSW,195,0.0,0.0,32,0.00,,---,0.00,VWS V14.01,2013-04-29 15:11:00,
2013-04-29 09:12:00,65.5,34.4,29.84,SSW,195,0.0,0.0,31,0.00,,---,0.00,VWS V14.01,2013-04-29 15:12:00,
2013-04-29 09:13:00,65.3,35.0,29.84,SSW,200,5.8,5.8,32,0.00,,---,0.00,VWS V14.01,2013-04-29 15:13:00,
2013-04-29 09:14:00,65.7,35.1,29.84,SSW,195,0.0,0.0,32,0.00,,---,0.00,VWS V14.01,2013-04-29 15:14:00,
2013-04-29 09:15:00,65.7,35.2,29.84,SSW,195,0.0,0.0,32,0.00,,---,0.00,VWS V14.01,2013-04-29 15:15:00,
2013-04-29 09:16:00,65.9,35.2,29.84,SSW,195,0.0,0.0,32,0.00,,---,0.00,VWS V14.01,2013-04-29 15:16:00,
2013-04-29 09:17:00,66.0,35.2,29.84,SSW,195,0.0,0.0,32,0.00,,---,0.00,VWS V14.01,2013-04-29 15:17:00,
2013-04-29 09:18:00,65.7,35.1,29.84,SSW,195,0.0,0.0,32,0.00,,---,0.00,VWS V14.01,2013-04-29 15:18:00,
2013-04-29 09:19:00,66.3,35.2,29.84,SSW,195,0.0,0.0,32,0.00,,---,0.00,VWS V14.01,2013-04-29 15:19:00,
2013-04-29 09:20:00,66.4,34.9,29.84,SSW,195,0.0,0.0,31,0.00,,---,0.00,VWS V14.01,2013-04-29 15:20:00,
2013-04-29 09:21:00,66.5,34.5,29.84,SSW,195,0.0,0.0,30,0.00,,---,0.00,VWS V14.01,2013-04-29 15:21:00,
2013-04-29 09:22:00,66.6,34.6,29.84,SSE,160,0.0,0.0,30,0.00,,---,0.00,VWS V14.01,2013-04-29 15:22:00,
2013-04-29 09:23:00,66.3,35.4,29.84,SSW,195,0.0,0.0,32,0.00,,---,0.00,VWS V14.01,2013-04-29 15:23:00,
2013-04-29 09:24:00,66.8,33.7,29.84,WNW,287,4.2,4.2,29,0.00,,---,0.00,VWS V14.01,2013-04-29 15:24:00,
2013-04-29 09:25:00,67.0,33.5,29.83,West,277,0.0,0.0,29,0.00,,---,0.00,VWS V14.01,2013-04-29 15:25:00,
2013-04-29 09:26:00,66.9,33.1,29.83,West,277,0.0,0.0,28,0.00,,---,0.00,VWS V14.01,2013-04-29 15:26:00,
2013-04-29 09:27:00,67.1,32.8,29.83,West,271,3.5,8.1,28,0.00,,---,0.00,VWS V14.01,2013-04-29 15:27:00,
2013-04-29 09:28:00,66.7,34.3,29.84,SSE,160,0.0,0.0,30,0.00,,---,0.00,VWS V14.01,2013-04-29 15:28:00,
2013-04-29 09:29:00,67.4,32.2,29.84,SW,217,2.7,3.4,27,0.00,,---,0.00,VWS V14.01,2013-04-29 15:29:00,
2013-04-29 09:30:00,67.5,31.8,29.84,SW,215,0.0,0.0,26,0.00,,---,0.00,VWS V14.01,2013-04-29 15:30:00,
2013-04-29 09:31:00,67.7,31.9,29.83,SW,215,4.2,4.2,26,0.00,,---,0.00,VWS V14.01,2013-04-29 15:31:00,
2013-04-29 09:32:00,67.9,32.0,29.83,WSW,253,0.0,0.0,26,0.00,,---,0.00,VWS V14.01,2013-04-29 15:32:00,
2013-04-29 09:33:00,67.2,32.7,29.84,WSW,242,0.0,3.0,28,0.00,,---,0.00,VWS V14.01,2013-04-29 15:33:00,
2013-04-29 09:34:00,68.0,31.3,29.83,WNW,294,0.0,0.0,25,0.00,,---,0.00,VWS V14.01,2013-04-29 15:34:00,
2013-04-29 09:35:00,68.0,31.3,29.83,WSW,248,0.0,4.2,25,0.00,,---,0.00,VWS V14.01,2013-04-29 15:35:00,
2013-04-29 09:36:00,68.1,31.3,29.83,WSW,248,0.0,0.0,25,0.00,,---,0.00,VWS V14.01,2013-04-29 15:36:00,
2013-04-29 09:37:00,68.2,31.6,29.83,WSW,248,0.0,0.0,26,0.00,,---,0.00,VWS V14.01,2013-04-29 15:37:00,
2013-04-29 09:38:00,67.6,31.5,29.84,SW,215,0.0,0.0,26,0.00,,---,0.00,VWS V14.01,2013-04-29 15:38:00,
2013-04-29 09:39:00,68.4,32.0,29.83,WSW,250,0.0,0.0,26,0.00,,---,0.00,VWS V14.01,2013-04-29 15:39:00,
2013-04-29 09:40:00,68.6,32.1,29.83,WSW,250,0.0,0.0,26,0.00,,---,0.00,VWS V14.01,2013-04-29 15:40:00,
2013-04-29 09:41:00,68.6,32.1,29.82,WSW,250,0.0,0.0,26,0.00,,---,0.00,VWS V14.01,2013-04-29 15:41:00,
2013-04-29 09:42:00,68.7,31.3,29.83,WSW,239,0.0,0.0,25,0.00,,---,0.00,VWS V14.01,2013-04-29 15:42:00,
2013-04-29 09:43:00,68.8,31.0,29.83,WSW,239,0.0,0.0,24,0.00,,---,0.00,VWS V14.01,2013-04-29 15:43:00,
2013-04-29 09:44:00,68.9,31.1,29.83,West,271,0.0,3.4,24,0.00,,---,0.00,VWS V14.01,2013-04-29 15:44:00,
2013-04-29 09:45:00,68.9,30.5,29.83,West,281,3.2,3.2,24,0.00,,---,0.00,VWS V14.01,2013-04-29 15:45:00,
2013-04-29 09:46:00,69.0,30.5,29.83,WNW,290,3.0,6.2,24,0.00,,---,0.00,VWS V14.01,2013-04-29 15:46:00,
2013-04-29 09:47:00,69.0,30.4,29.83,West,267,2.9,2.9,24,0.00,,---,0.00,VWS V14.01,2013-04-29 15:47:00,
2013-04-29 09:48:00,69.1,30.6,29.83,West,267,0.0,0.0,24,0.00,,---,0.00,VWS V14.01,2013-04-29 15:48:00,
2013-04-29 09:49:00,69.1,29.0,29.83,NNW,338,3.3,3.4,22,0.00,,---,0.00,VWS V14.01,2013-04-29 15:49:00,
2013-04-29 09:50:00,69.2,28.7,29.82,NW,308,0.0,0.0,22,0.00,,---,0.00,VWS V14.01,2013-04-29 15:50:00,
2013-04-29 09:51:00,69.3,29.2,29.82,West,274,0.0,0.0,22,0.00,,---,0.00,VWS V14.01,2013-04-29 15:51:00,
2013-04-29 09:52:00,69.3,29.3,29.82,West,274,0.0,0.0,22,0.00,,---,0.00,VWS V14.01,2013-04-29 15:52:00,
2013-04-29 09:53:00,69.5,29.7,29.82,West,274,0.0,0.0,23,0.00,,---,0.00,VWS V14.01,2013-04-29 15:53:00,
2013-04-29 09:54:00,69.5,29.4,29.82,West,274,0.0,0.0,22,0.00,,---,0.00,VWS V14.01,2013-04-29 15:54:00,
2013-04-29 09:55:00,69.6,29.1,29.82,West,274,0.0,0.0,22,0.00,,---,0.00,VWS V14.01,2013-04-29 15:55:00,
2013-04-29 09:56:00,69.6,28.9,29.82,West,274,0.0,0.0,22,0.00,,---,0.00,VWS V14.01,2013-04-29 15:56:00,
2013-04-29 09:57:00,69.8,30.4,29.82,West,274,0.0,0.0,23,0.00,,---,0.00,VWS V14.01,2013-04-29 15:57:00,
2013-04-29 09:58:00,69.9,29.0,29.82,West,274,0.0,0.0,22,0.00,,---,0.00,VWS V14.01,2013-04-29 15:58:00,
2013-04-29 09:59:00,70.0,29.1,29.82,West,274,0.0,0.0,22,0.00,,---,0.00,VWS V14.01,2013-04-29 15:59:00,
2013-04-29 10:00:00,70.0,29.7,29.82,West,274,0.0,0.0,22,0.00,,---,0.00,VWS V14.01,2013-04-29 16:00:00,
2013-04-29 10:01:00,70.1,28.6,29.82,West,274,0.0,0.0,21,0.00,,---,0.00,VWS V14.01,2013-04-29 16:01:00,
2013-04-29 10:02:00,70.2,27.5,29.82,WSW,242,0.0,6.6,20,0.00,,---,0.00,VWS V14.01,2013-04-29 16:02:00,
2013-04-29 10:03:00,70.2,28.7,29.82,WSW,242,0.0,0.0,21,0.00,,---,0.00,VWS V14.01,2013-04-29 16:03:00,
2013-04-29 10:04:00,70.3,29.5,29.82,WSW,242,0.0,0.0,22,0.00,,---,0.00,VWS V14.01,2013-04-29 16:04:00,
2013-04-29 10:05:00,70.4,30.3,29.82,WSW,242,0.0,0.0,22,0.00,,---,0.00,VWS V14.01,2013-04-29 16:05:00,
2013-04-29 10:06:00,70.5,30.3,29.82,WSW,242,0.0,0.0,22,0.00,,---,0.00,VWS V14.01,2013-04-29 16:06:00,
2013-04-29 10:07:00,70.5,30.1,29.82,WSW,253,0.0,0.0,22,0.00,,---,0.00,VWS V14.01,2013-04-29 16:07:00,
2013-04-29 10:08:00,70.7,30.5,29.82,WSW,253,0.0,0.0,22,0.00,,---,0.00,VWS V14.01,2013-04-29 16:08:00,
2013-04-29 10:09:00,70.7,29.1,29.82,WSW,253,0.0,0.0,21,0.00,,---,0.00,VWS V14.01,2013-04-29 16:09:00,
2013-04-29 10:10:00,70.8,27.7,29.82,WSW,253,0.0,0.0,20,0.00,,---,0.00,VWS V14.01,2013-04-29 16:10:00,
2013-04-29 10:11:00,70.8,26.4,29.82,WSW,253,0.0,0.0,19,0.00,,---,0.00,VWS V14.01,2013-04-29 16:11:00,
2013-04-29 10:12:00,70.8,26.0,29.82,WSW,253,0.0,0.0,19,0.00,,---,0.00,VWS V14.01,2013-04-29 16:12:00,
2013-04-29 10:13:00,70.7,25.5,29.82,WSW,253,0.0,0.0,18,0.00,,---,0.00,VWS V14.01,2013-04-29 16:13:00,
2013-04-29 10:14:00,70.6,25.3,29.82,WSW,253,0.0,0.0,18,0.00,,---,0.00,VWS V14.01,2013-04-29 16:14:00,
2013-04-29 10:15:00,70.6,25.6,29.82,WSW,253,0.0,0.0,18,0.00,,---,0.00,VWS V14.01,2013-04-29 16:15:00,
2013-04-29 10:16:00,70.6,25.3,29.82,WSW,253,0.0,0.0,18,0.00,,---,0.00,VWS V14.01,2013-04-29 16:16:00,
2013-04-29 10:17:00,70.5,25.0,29.82,WSW,253,0.0,0.0,18,0.00,,---,0.00,VWS V14.01,2013-04-29 16:17:00,
2013-04-29 10:18:00,70.5,25.9,29.82,WSW,253,0.0,0.0,19,0.00,,---,0.00,VWS V14.01,2013-04-29 16:18:00,
2013-04-29 10:19:00,70.5,26.0,29.82,WSW,253,0.0,0.0,19,0.00,,---,0.00,VWS V14.01,2013-04-29 16:19:00,
2013-04-29 10:20:00,70.5,25.1,29.82,WSW,253,0.0,0.0,18,0.00,,---,0.00,VWS V14.01,2013-04-29 16:20:00,
2013-04-29 10:21:00,70.5,24.5,29.82,East,93,4.8,5.0,18,0.00,,---,0.00,VWS V14.01,2013-04-29 16:21:00,
2013-04-29 10:22:00,70.5,24.6,29.82,East,93,0.0,0.0,18,0.00,,---,0.00,VWS V14.01,2013-04-29 16:22:00,
2013-04-29 10:23:00,70.5,24.6,29.82,East,93,0.0,0.0,18,0.00,,---,0.00,VWS V14.01,2013-04-29 16:23:00,
2013-04-29 10:24:00,70.5,23.6,29.82,NW,326,6.5,9.4,17,0.00,,---,0.00,VWS V14.01,2013-04-29 16:24:00,
2013-04-29 10:25:00,70.5,22.9,29.82,North,10,7.4,7.8,16,0.00,,---,0.00,VWS V14.01,2013-04-29 16:25:00,
2013-04-29 10:26:00,70.5,22.8,29.82,North,10,0.0,0.0,16,0.00,,---,0.00,VWS V14.01,2013-04-29 16:26:00,
2013-04-29 10:27:00,70.6,22.9,29.82,North,359,4.7,4.7,16,0.00,,---,0.00,VWS V14.01,2013-04-29 16:27:00,
2013-04-29 10:28:00,70.6,24.4,29.82,NNE,32,3.2,4.8,18,0.00,,---,0.00,VWS V14.01,2013-04-29 16:28:00,
2013-04-29 10:29:00,70.7,23.5,29.82,NNW,329,0.0,0.0,17,0.00,,---,0.00,VWS V14.01,2013-04-29 16:29:00,
2013-04-29 10:30:00,70.7,23.1,29.82,North,3,3.3,6.1,16,0.00,,---,0.00,VWS V14.01,2013-04-29 16:30:00,
2013-04-29 10:31:00,70.8,22.6,29.82,NNE,20,3.5,5.2,16,0.00,,---,0.00,VWS V14.01,2013-04-29 16:31:00,
2013-04-29 10:32:00,70.8,23.2,29.82,NW,326,5.5,6.9,16,0.00,,---,0.00,VWS V14.01,2013-04-29 16:32:00,
2013-04-29 10:33:00,70.9,22.5,29.82,NNW,340,5.2,5.6,16,0.00,,---,0.00,VWS V14.01,2013-04-29 16:33:00,
2013-04-29 10:34:00,70.8,22.0,29.82,NNW,330,4.4,4.6,16,0.00,,---,0.00,VWS V14.01,2013-04-29 16:34:00,
2013-04-29 10:35:00,70.8,21.8,29.82,WNW,297,0.0,0.0,16,0.00,,---,0.00,VWS V14.01,2013-04-29 16:35:00,
2013-04-29 10:36:00,70.8,22.6,29.82,WNW,297,0.0,0.0,16,0.00,,---,0.00,VWS V14.01,2013-04-29 16:36:00,
2013-04-29 10:37:00,70.8,23.6,29.82,WNW,297,0.0,0.0,17,0.00,,---,0.00,VWS V14.01,2013-04-29 16:37:00,
2013-04-29 10:38:00,70.9,24.1,29.82,WNW,297,0.0,0.0,17,0.00,,---,0.00,VWS V14.01,2013-04-29 16:38:00,
2013-04-29 10:39:00,70.9,24.1,29.82,WNW,297,0.0,0.0,17,0.00,,---,0.00,VWS V14.01,2013-04-29 16:39:00,
2013-04-29 10:40:00,70.9,23.8,29.82,WNW,297,0.0,0.0,17,0.00,,---,0.00,VWS V14.01,2013-04-29 16:40:00,
2013-04-29 10:41:00,70.9,23.5,29.82,WNW,297,0.0,0.0,17,0.00,,---,0.00,VWS V14.01,2013-04-29 16:41:00,
2013-04-29 10:42:00,71.0,22.6,29.82,WNW,297,0.0,0.0,16,0.00,,---,0.00,VWS V14.01,2013-04-29 16:42:00,
2013-04-29 10:43:00,71.0,22.1,29.82,WNW,297,0.0,0.0,16,0.00,,---,0.00,VWS V14.01,2013-04-29 16:43:00,
2013-04-29 10:44:00,71.1,21.6,29.82,WNW,297,0.0,0.0,15,0.00,,---,0.00,VWS V14.01,2013-04-29 16:44:00,
2013-04-29 10:45:00,71.2,22.3,29.82,WNW,297,0.0,0.0,16,0.00,,---,0.00,VWS V14.01,2013-04-29 16:45:00,
2013-04-29 10:46:00,71.3,23.0,29.82,WNW,297,0.0,0.0,16,0.00,,---,0.00,VWS V14.01,2013-04-29 16:46:00,
2013-04-29 10:47:00,71.4,23.8,29.82,WNW,297,0.0,0.0,17,0.00,,---,0.00,VWS V14.01,2013-04-29 16:47:00,
2013-04-29 10:48:00,71.5,23.0,29.82,NNW,329,4.9,6.7,16,0.00,,---,0.00,VWS V14.01,2013-04-29 16:48:00,
2013-04-29 10:49:00,71.6,22.5,29.82,NNW,329,4.8,7.9,16,0.00,,---,0.00,VWS V14.01,2013-04-29 16:49:00,
2013-04-29 10:50:00,71.6,22.0,29.82,NNW,346,0.0,5.6,15,0.00,,---,0.00,VWS V14.01,2013-04-29 16:50:00,
2013-04-29 10:51:00,71.6,22.0,29.82,NNW,339,3.0,6.7,15,0.00,,---,0.00,VWS V14.01,2013-04-29 16:51:00,
2013-04-29 10:52:00,71.6,21.7,29.82,NNW,332,0.0,0.0,15,0.00,,---,0.00,VWS V14.01,2013-04-29 16:52:00,
2013-04-29 10:53:00,71.6,23.1,29.82,NNW,332,0.0,0.0,16,0.00,,---,0.00,VWS V14.01,2013-04-29 16:53:00,
2013-04-29 10:54:00,71.6,24.4,29.82,NNW,332,0.0,0.0,17,0.00,,---,0.00,VWS V14.01,2013-04-29 16:54:00,
2013-04-29 10:55:00,71.7,25.7,29.82,NNW,332,0.0,0.0,18,0.00,,---,0.00,VWS V14.01,2013-04-29 16:55:00,
2013-04-29 10:56:00,71.7,26.6,29.81,NNW,332,0.0,0.0,18,0.00,,---,0.00,VWS V14.01,2013-04-29 16:56:00,
2013-04-29 10:57:00,71.9,25.5,29.81,NNW,332,0.0,0.0,18,0.00,,---,0.00,VWS V14.01,2013-04-29 16:57:00,
2013-04-29 10:58:00,72.0,25.3,29.81,NNW,332,0.0,0.0,17,0.00,,---,0.00,VWS V14.01,2013-04-29 16:58:00,
2013-04-29 10:59:00,72.0,56.4,0.00,North,10,0.0,6.0,58,0.00,,---,0.00,VWS V14.01,2013-04-29 16:59:00,
2013-04-29 11:00:00,72.0,22.0,29.81,North,10,0.0,14.4,15,0.00,,---,0.00,VWS V14.01,2013-04-29 17:00:00,
2013-04-29 11:01:00,71.9,22.4,29.81,North,10,0.0,6.0,15,0.00,,---,0.00,VWS V14.01,2013-04-29 17:01:00,
2013-04-29 11:02:00,73.7,58.1,0.00,North,10,6.0,14.4,58,0.00,,---,0.00,VWS V14.01,2013-04-29 17:02:00,
2013-04-29 11:03:00,71.9,22.7,29.81,North,10,0.0,14.5,16,0.00,,---,0.00,VWS V14.01,2013-04-29 17:03:00,
2013-04-29 11:04:00,71.8,22.9,29.81,North,10,0.0,14.8,16,0.00,,---,0.00,VWS V14.01,2013-04-29 17:04:00,
2013-04-29 11:05:00,71.8,23.8,29.81,North,10,0.0,6.0,16,0.00,,---,0.00,VWS V14.01,2013-04-29 17:05:00,
2013-04-29 11:06:00,71.9,25.0,29.81,North,10,0.0,6.0,17,0.00,,---,2.52,VWS V14.01,2013-04-29 17:06:00,
2013-04-29 11:07:00,71.9,56.7,0.00,NW,314,0.0,6.0,59,0.00,,---,0.00,VWS V14.01,2013-04-29 17:07:00,
2013-04-29 11:08:00,71.9,24.3,29.81,NW,314,0.0,0.0,17,0.00,,---,0.00,VWS V14.01,2013-04-29 17:08:00,
2013-04-29 11:09:00,72.0,22.5,29.81,NNE,25,5.5,6.6,15,0.00,,---,0.00,VWS V14.01,2013-04-29 17:09:00,
2013-04-29 11:10:00,73.7,58.5,0.00,NE,39,6.0,7.0,59,0.00,,---,0.90,VWS V14.01,2013-04-29 17:10:00,
2013-04-29 11:11:00,72.0,57.0,29.81,North,359,0.0,6.0,59,0.00,,---,0.00,VWS V14.01,2013-04-29 17:11:00,
2013-04-29 11:12:00,72.1,19.6,29.81,North,359,0.0,6.0,14,0.00,,---,0.00,VWS V14.01,2013-04-29 17:12:00,
2013-04-29 11:13:00,72.1,20.0,29.81,North,359,0.0,6.0,14,0.00,,---,0.00,VWS V14.01,2013-04-29 17:13:00,
2013-04-29 11:14:00,72.2,20.7,29.81,North,359,0.0,13.7,14,0.00,,---,99.99,VWS V14.01,2013-04-29 17:14:00,
2013-04-29 11:15:00,72.3,21.8,0.00,North,359,0.0,6.0,15,0.00,,---,0.97,VWS V14.01,2013-04-29 17:15:00,
2013-04-29 11:16:00,72.4,21.2,29.81,North,359,0.0,6.0,14,0.00,,---,0.00,VWS V14.01,2013-04-29 17:16:00,
2013-04-29 11:17:00,72.5,20.1,29.81,North,359,0.0,6.0,14,0.00,,---,0.00,VWS V14.01,2013-04-29 17:17:00,
2013-04-29 11:18:00,73.7,58.9,0.00,SSE,155,0.0,6.0,60,0.00,,---,0.00,VWS V14.01,2013-04-29 17:18:00,
2013-04-29 11:19:00,72.6,18.4,29.80,NNE,24,0.0,6.0,13,0.00,,---,0.00,VWS V14.01,2013-04-29 17:19:00,
2013-04-29 11:20:00,73.7,59.0,0.00,NNE,24,6.0,12.7,60,0.00,,---,0.00,VWS V14.01,2013-04-29 17:20:00,
2013-04-29 11:21:00,72.7,19.4,29.80,NNE,24,0.0,13.0,13,0.00,,---,99.99,VWS V14.01,2013-04-29 17:21:00,
2013-04-29 11:22:00,72.8,20.5,29.80,West,267,4.4,13.5,14,0.00,,---,0.00,VWS V14.01,2013-04-29 17:22:00,
2013-04-29 11:23:00,73.0,22.5,29.80,West,267,0.0,0.0,15,0.00,,---,0.00,VWS V14.01,2013-04-29 17:23:00,
2013-04-29 11:24:00,73.1,23.7,29.80,West,267,0.0,6.0,16,0.00,,---,0.00,VWS V14.01,2013-04-29 17:24:00,
2013-04-29 11:25:00,73.3,58.8,29.48,SW,236,3.3,4.7,60,0.00,,---,99.99,VWS V14.01,2013-04-29 17:25:00,
2013-04-29 11:26:00,73.4,25.4,29.80,SW,236,0.0,0.0,17,0.00,,---,0.00,VWS V14.01,2013-04-29 17:26:00,
2013-04-29 11:27:00,73.6,25.7,29.80,SW,236,0.0,6.0,17,0.00,,---,0.00,VWS V14.01,2013-04-29 17:27:00,
2013-04-29 11:28:00,73.7,23.9,29.80,SW,236,0.0,6.0,15,0.00,,---,0.00,VWS V14.01,2013-04-29 17:28:00,
2013-04-29 11:29:00,73.8,23.0,29.48,West,271,0.0,14.2,15,0.00,,---,0.00,VWS V14.01,2013-04-29 17:29:00,
2013-04-29 11:30:00,73.9,22.7,29.80,West,271,0.0,13.9,15,0.00,,---,2.26,VWS V14.01,2013-04-29 17:30:00,
2013-04-29 11:31:00,74.1,22.7,29.80,West,271,3.2,14.0,14,0.00,,---,0.00,VWS V14.01,2013-04-29 17:31:00,
2013-04-29 11:32:00,73.7,59.5,0.00,West,271,0.0,13.5,61,0.00,,---,99.99,VWS V14.01,2013-04-29 17:32:00,
2013-04-29 11:33:00,74.2,60.0,0.00,West,271,0.0,13.4,61,0.00,,---,0.00,VWS V14.01,2013-04-29 17:33:00,
2013-04-29 11:34:00,74.2,21.5,29.81,West,271,0.0,13.5,14,0.00,,---,0.00,VWS V14.01,2013-04-29 17:34:00,
2013-04-29 11:35:00,74.3,22.1,29.81,West,269,0.0,13.5,14,0.00,,---,0.00,VWS V14.01,2013-04-29 17:35:00,
2013-04-29 11:36:00,74.3,15.1,29.80,West,269,0.0,13.9,10,0.00,,---,0.00,VWS V14.01,2013-04-29 17:36:00,
2013-04-29 11:37:00,74.4,22.5,29.80,West,269,0.0,6.0,14,0.00,,---,0.00,VWS V14.01,2013-04-29 17:37:00,
2013-04-29 11:38:00,74.4,21.8,29.81,West,263,6.5,13.3,14,0.00,,---,1.04,VWS V14.01,2013-04-29 17:38:00,
2013-04-29 11:39:00,74.4,21.8,29.80,WNW,301,0.0,6.0,14,0.00,,---,0.00,VWS V14.01,2013-04-29 17:39:00,
2013-04-29 11:40:00,74.5,19.7,29.80,North,352,0.0,12.8,13,0.00,,---,0.00,VWS V14.01,2013-04-29 17:40:00,
2013-04-29 11:41:00,73.7,59.9,0.00,North,352,6.0,12.2,62,0.00,,---,0.00,VWS V14.01,2013-04-29 17:41:00,
2013-04-29 11:42:00,74.5,18.0,29.80,NNW,335,0.0,6.0,12,0.00,,---,0.00,VWS V14.01,2013-04-29 17:42:00,
2013-04-29 11:43:00,74.5,17.4,29.80,NNW,335,0.0,6.0,11,0.00,,---,0.00,VWS V14.01,2013-04-29 17:43:00,
2013-04-29 11:44:00,74.5,17.0,29.80,NNW,335,0.0,12.0,11,0.00,,---,0.00,VWS V14.01,2013-04-29 17:44:00,
2013-04-29 11:45:00,73.7,60.1,0.00,SSE,153,2.7,12.0,62,0.00,,---,0.00,VWS V14.01,2013-04-29 17:45:00,
2013-04-29 11:46:00,74.6,18.7,29.80,WNW,291,0.0,6.0,12,0.00,,---,0.00,VWS V14.01,2013-04-29 17:46:00,
2013-04-29 11:47:00,74.7,20.1,29.80,WNW,291,0.0,13.0,13,0.00,,---,0.00,VWS V14.01,2013-04-29 17:47:00,
2013-04-29 11:48:00,73.7,60.2,0.00,SSE,150,3.5,6.6,63,0.00,,---,0.00,VWS V14.01,2013-04-29 17:48:00,
2013-04-29 11:49:00,74.8,18.2,29.79,WSW,252,0.0,12.8,12,0.00,,---,0.00,VWS V14.01,2013-04-29 17:49:00,
2013-04-29 11:50:00,74.9,20.8,29.79,SW,225,5.4,14.9,13,0.00,,---,0.00,VWS V14.01,2013-04-29 17:50:00,
2013-04-29 11:51:00,72.0,23.5,29.81,North,10,0.0,6.0,16,0.00,,---,99.99,VWS V14.01,2013-04-29 17:51:00,
2013-04-29 11:52:00,75.2,21.6,29.79,WSW,243,0.0,12.4,13,0.00,,---,0.00,VWS V14.01,2013-04-29 17:52:00,
2013-04-29 11:53:00,75.3,0.0,2.11,WSW,243,0.0,7.3,0,0.00,,---,0.00,VWS V14.01,2013-04-29 17:53:00,
2013-04-29 11:54:00,75.4,21.5,29.79,WSW,243,0.0,0.0,13,0.00,,---,0.00,VWS V14.01,2013-04-29 17:54:00,
2013-04-29 11:55:00,87.1,75.7,0.00,WSW,243,0.0,13.2,69,0.00,,---,2.40,VWS V14.01,2013-04-29 17:55:00,
2013-04-29 11:56:00,71.9,0.0,29.81,North,10,0.0,14.4,0,1.34,,---,99.99,VWS V14.01,2013-04-29 17:56:00,
2013-04-29 11:57:00,75.8,22.9,29.79,WSW,243,0.0,0.0,14,0.00,,---,0.00,VWS V14.01,2013-04-29 17:57:00,
2013-04-29 11:58:00,75.8,22.9,29.79,WSW,238,0.0,14.9,14,0.00,,---,0.00,VWS V14.01,2013-04-29 17:58:00,
2013-04-29 11:59:00,75.9,22.5,29.79,WSW,238,0.0,14.9,14,0.00,,---,0.00,VWS V14.01,2013-04-29 17:59:00,
2013-04-29 12:00:00,75.3,0.0,2.13,WSW,238,0.0,14.9,0,0.00,,---,0.00,VWS V14.01,2013-04-29 18:00:00,
2013-04-29 12:01:00,71.8,24.0,29.81,North,10,0.0,0.0,16,0.00,,---,99.99,VWS V14.01,2013-04-29 18:01:00,
2013-04-29 12:02:00,76.2,22.2,29.79,SSW,208,4.7,14.9,13,0.00,,---,0.00,VWS V14.01,2013-04-29 18:02:00,
2013-04-29 12:03:00,76.3,23.6,29.79,West,264,6.0,14.9,14,0.00,,---,0.88,VWS V14.01,2013-04-29 18:03:00,
2013-04-29 12:04:00,76.4,23.5,29.79,SW,233,5.7,13.2,14,0.00,,---,0.97,VWS V14.01,2013-04-29 18:04:00,
2013-04-29 12:05:00,75.3,0.0,2.14,SSW,194,2.7,13.2,0,0.00,,---,0.00,VWS V14.01,2013-04-29 18:05:00,
2013-04-29 12:06:00,76.5,24.1,29.79,SSW,194,0.0,0.7,14,0.00,,---,0.00,VWS V14.01,2013-04-29 18:06:00,
2013-04-29 12:07:00,71.9,0.0,29.81,NNW,335,0.0,6.0,0,0.00,,---,99.99,VWS V14.01,2013-04-29 18:07:00,
2013-04-29 12:08:00,76.5,20.7,29.79,SW,232,0.0,0.0,12,0.00,,---,0.00,VWS V14.01,2013-04-29 18:08:00,
2013-04-29 12:09:00,76.5,22.4,29.79,West,278,2.7,13.5,13,0.00,,---,0.00,VWS V14.01,2013-04-29 18:09:00,
2013-04-29 12:10:00,76.5,21.7,29.79,NW,326,3.4,7.3,13,0.00,,---,0.00,VWS V14.01,2013-04-29 18:10:00,
2013-04-29 12:11:00,76.5,19.4,29.79,NNW,342,3.3,12.3,12,0.00,,---,0.00,VWS V14.01,2013-04-29 18:11:00,
2013-04-29 12:12:00,72.0,19.6,29.81,North,359,0.0,6.0,14,0.00,,---,99.99,VWS V14.01,2013-04-29 18:12:00,
2013-04-29 12:13:00,76.4,18.7,29.79,NW,323,0.0,14.9,11,0.00,,---,0.00,VWS V14.01,2013-04-29 18:13:00,
2013-04-29 12:14:00,76.3,20.8,29.79,NW,323,0.0,0.0,12,0.00,,---,0.00,VWS V14.01,2013-04-29 18:14:00,
2013-04-29 12:15:00,75.3,0.0,2.17,NW,323,0.0,0.0,0,0.00,,---,0.00,VWS V14.01,2013-04-29 18:15:00,
2013-04-29 12:16:00,76.3,20.0,29.79,NW,323,0.0,12.4,12,0.00,,---,0.00,VWS V14.01,2013-04-29 18:16:00,
2013-04-29 12:17:00,98.3,85.6,35.82,NW,323,0.0,14.9,67,0.00,,---,7.37,VWS V14.01,2013-04-29 18:17:00,
2013-04-29 12:18:00,72.3,21.8,29.81,North,359,0.0,6.0,15,0.00,,---,99.99,VWS V14.01,2013-04-29 18:18:00,
2013-04-29 12:19:00,76.5,22.8,29.79,SSE,148,0.0,4.8,13,1.43,,---,0.00,VWS V14.01,2013-04-29 18:19:00,
2013-04-29 12:20:00,76.5,22.9,29.79,South,184,0.0,13.4,14,0.00,,---,0.00,VWS V14.01,2013-04-29 18:20:00,
2013-04-29 12:21:00,75.3,0.0,2.19,South,184,0.0,14.2,0,0.00,,---,0.00,VWS V14.01,2013-04-29 18:21:00,
2013-04-29 12:22:00,76.6,19.6,29.79,SSW,201,0.0,5.7,12,0.00,,---,99.99,VWS V14.01,2013-04-29 18:22:00,
2013-04-29 12:23:00,72.6,57.8,0.00,North,359,0.0,6.0,60,1.17,,---,0.00,VWS V14.01,2013-04-29 18:23:00,
2013-04-29 12:24:00,76.7,19.5,2.31,North,0,0.0,12.2,12,0.00,,---,0.00,VWS V14.01,2013-04-29 18:24:00,
2013-04-29 12:25:00,76.7,16.1,29.79,ENE,66,6.1,8.8,10,0.00,,---,0.00,VWS V14.01,2013-04-29 18:25:00,
2013-04-29 12:26:00,76.6,14.6,29.79,NNE,28,4.3,8.6,9,0.00,,---,0.00,VWS V14.01,2013-04-29 18:26:00,
2013-04-29 12:27:00,76.5,0.0,2.21,North,4,9.8,10.6,0,0.00,,---,0.00,VWS V14.01,2013-04-29 18:27:00,
2013-04-29 12:28:00,10.3,-30.8,0.00,North,0,13.0,13.0,13,0.00,,---,0.00,VWS V14.01,2013-04-29 18:28:00,
2013-04-29 12:29:00,76.4,14.4,29.78,North,4,7.5,9.6,9,0.00,,---,0.00,VWS V14.01,2013-04-29 18:29:00,
2013-04-29 12:30:00,76.3,13.6,29.78,NNE,14,8.4,15.0,9,0.00,,---,0.00,VWS V14.01,2013-04-29 18:30:00,
2013-04-29 12:31:00,76.3,64.6,29.48,NE,53,7.9,14.8,67,0.00,,---,0.00,VWS V14.01,2013-04-29 18:31:00,
2013-04-29 12:32:00,73.8,59.5,29.80,West,271,0.0,14.2,61,0.00,,---,2.28,VWS V14.01,2013-04-29 18:32:00,
2013-04-29 12:33:00,73.1,11.2,29.80,West,267,0.0,6.0,9,0.00,,---,0.00,VWS V14.01,2013-04-29 18:33:00,
2013-04-29 12:34:00,76.2,0.0,29.78,North,6,4.4,15.0,0,0.00,,---,0.00,VWS V14.01,2013-04-29 18:34:00,
2013-04-29 12:35:00,76.2,-5.4,30.00,North,359,6.3,7.8,4,0.00,,---,0.00,VWS V14.01,2013-04-29 18:35:00,
2013-04-29 12:36:00,76.3,15.3,29.78,North,359,3.0,15.1,10,0.00,,---,0.00,VWS V14.01,2013-04-29 18:36:00,
2013-04-29 12:37:00,74.2,21.5,29.81,West,271,0.0,13.5,14,0.00,,---,99.99,VWS V14.01,2013-04-29 18:37:00,
2013-04-29 12:38:00,73.6,12.3,29.80,SW,236,0.0,6.0,9,0.00,,---,0.00,VWS V14.01,2013-04-29 18:38:00,
2013-04-29 12:39:00,74.4,22.6,29.80,West,269,0.0,13.9,14,0.00,,---,99.99,VWS V14.01,2013-04-29 18:39:00,
2013-04-29 12:40:00,74.4,21.8,29.80,WNW,301,3.2,6.0,14,0.00,,---,99.99,VWS V14.01,2013-04-29 18:40:00,
2013-04-29 12:41:00,74.6,61.0,29.80,WNW,295,2.7,12.0,62,0.00,,---,99.99,VWS V14.01,2013-04-29 18:41:00,
2013-04-29 12:42:00,74.7,0.0,29.80,WNW,291,0.0,6.0,0,1.05,,---,99.99,VWS V14.01,2013-04-29 18:42:00,
2013-04-29 12:43:00,73.7,60.2,0.00,WSW,249,6.0,6.6,63,0.00,,---,99.99,VWS V14.01,2013-04-29 18:43:00,
2013-04-29 12:44:00,73.9,0.0,29.80,West,271,0.0,13.9,0,0.00,,---,99.99,VWS V14.01,2013-04-29 18:44:00,
2013-04-29 12:45:00,75.0,20.7,29.79,SSW,201,2.6,14.9,13,0.00,,---,99.99,VWS V14.01,2013-04-29 18:45:00,
2013-04-29 12:46:00,76.3,13.9,29.77,North,359,0.0,10.7,9,0.00,,---,0.00,VWS V14.01,2013-04-29 18:46:00,
2013-04-29 12:47:00,75.2,20.8,29.79,West,277,3.4,7.3,13,0.00,,---,0.00,VWS V14.01,2013-04-29 18:47:00,
2013-04-29 12:48:00,76.3,14.1,29.77,North,350,7.0,14.9,9,0.00,,---,0.00,VWS V14.01,2013-04-29 18:48:00,
2013-04-29 12:49:00,75.4,22.4,29.79,WSW,243,0.0,14.9,14,0.00,,---,2.01,VWS V14.01,2013-04-29 18:49:00,
2013-04-29 12:50:00,75.5,21.8,29.79,WSW,243,2.5,13.2,13,0.00,,---,99.99,VWS V14.01,2013-04-29 18:50:00,
2013-04-29 12:51:00,76.4,13.7,29.77,NNE,13,9.9,14.9,9,0.00,,---,0.00,VWS V14.01,2013-04-29 18:51:00,
2013-04-29 12:52:00,76.3,13.1,29.77,NNE,14,9.6,14.9,9,0.00,,---,0.00,VWS V14.01,2013-04-29 18:52:00,
2013-04-29 12:53:00,75.8,22.9,29.79,WSW,238,0.0,13.5,14,0.00,,---,0.00,VWS V14.01,2013-04-29 18:53:00,
2013-04-29 12:54:00,75.9,21.8,29.79,WSW,238,0.0,10.5,13,0.00,,---,99.99,VWS V14.01,2013-04-29 18:54:00,
2013-04-29 12:55:00,76.0,22.4,29.79,West,271,5.0,5.2,13,0.00,,---,99.99,VWS V14.01,2013-04-29 18:55:00,
2013-04-29 12:56:00,76.4,13.9,29.77,North,359,3.4,14.9,9,0.00,,---,0.00,VWS V14.01,2013-04-29 18:56:00,
2013-04-29 12:57:00,76.2,22.5,29.79,WNW,295,0.0,13.4,13,0.00,,---,99.99,VWS V14.01,2013-04-29 18:57:00,
2013-04-29 12:58:00,76.3,0.0,29.79,WNW,291,5.4,13.0,0,0.00,,---,99.99,VWS V14.01,2013-04-29 18:58:00,
2013-04-29 12:59:00,76.4,23.4,29.79,West,266,5.3,13.1,14,0.00,,---,99.99,VWS V14.01,2013-04-29 18:59:00,
2013-04-29 13:00:00,76.5,0.0,29.79,SSW,194,0.0,13.4,0,0.00,,---,99.99,VWS V14.01,2013-04-29 19:00:00,
2013-04-29 13:01:00,76.6,0.0,29.79,South,184,0.0,14.2,0,0.00,,---,99.99,VWS V14.01,2013-04-29 19:01:00,
2013-04-29 13:02:00,76.7,19.5,29.79,SSW,201,0.0,14.4,12,0.00,,---,99.99,VWS V14.01,2013-04-29 19:02:00,
2013-04-29 13:03:00,76.6,64.9,35.82,North,359,0.0,8.1,67,0.00,,---,7.83,VWS V14.01,2013-04-29 19:03:00,
2013-04-29 13:04:00,76.7,14.4,29.76,North,350,7.3,14.9,9,0.00,,---,0.00,VWS V14.01,2013-04-29 19:04:00,
2013-04-29 13:05:00,76.8,14.0,29.77,North,359,4.8,14.9,9,0.00,,---,0.00,VWS V14.01,2013-04-29 19:05:00,
2013-04-29 13:06:00,76.9,13.6,29.77,WNW,292,0.0,4.6,9,0.00,,---,0.00,VWS V14.01,2013-04-29 19:06:00,
2013-04-29 13:07:00,76.9,13.8,29.76,WNW,292,0.0,14.9,9,0.00,,---,0.00,VWS V14.01,2013-04-29 19:07:00,
2013-04-29 13:08:00,76.9,14.8,29.76,WNW,288,0.0,10.7,9,1.43,,---,0.00,VWS V14.01,2013-04-29 19:08:00,
2013-04-29 13:09:00,77.0,14.6,29.76,WNW,288,0.0,1.2,9,0.00,,---,0.00,VWS V14.01,2013-04-29 19:09:00,
2013-04-29 13:10:00,3.8,-42.0,29.76,North,0,3.5,10.4,9,0.00,,---,1.72,VWS V14.01,2013-04-29 19:10:00,
2013-04-29 13:11:00,77.2,12.8,29.77,North,0,3.5,12.1,8,0.00,,---,0.23,VWS V14.01,2013-04-29 19:11:00,
2013-04-29 13:12:00,77.2,12.8,29.76,WNW,297,5.6,10.2,8,0.00,,---,0.00,VWS V14.01,2013-04-29 19:12:00,
2013-04-29 13:13:00,77.0,11.8,29.76,NNW,335,8.5,8.5,8,0.00,,---,0.00,VWS V14.01,2013-04-29 19:13:00,
2013-04-29 13:14:00,77.0,27.3,29.76,NNW,336,6.8,8.6,16,0.00,,---,7.94,VWS V14.01,2013-04-29 19:14:00,
2013-04-29 13:15:00,76.9,10.3,29.76,NNW,342,8.7,15.9,8,0.00,,---,0.00,VWS V14.01,2013-04-29 19:15:00,
2013-04-29 13:16:00,76.9,11.7,29.76,NNE,18,4.2,9.0,8,0.00,,---,0.00,VWS V14.01,2013-04-29 19:16:00,
2013-04-29 13:17:00,76.9,-4.9,5.57,NNW,339,9.2,9.2,4,0.00,,---,1.18,VWS V14.01,2013-04-29 19:17:00,
2013-04-29 13:18:00,76.9,11.2,29.76,NNW,339,9.6,10.0,8,0.00,,---,0.00,VWS V14.01,2013-04-29 19:18:00,
2013-04-29 13:19:00,76.9,10.3,29.76,NNE,31,9.5,12.6,8,1.42,,---,0.00,VWS V14.01,2013-04-29 19:19:00,
2013-04-29 13:20:00,76.9,10.3,2.22,NNE,22,9.8,16.8,8,0.00,,---,0.00,VWS V14.01,2013-04-29 19:20:00,
2013-04-29 13:21:00,76.8,9.9,29.76,North,1,8.7,9.8,8,0.00,,---,0.00,VWS V14.01,2013-04-29 19:21:00,
2013-04-29 13:22:00,76.8,9.9,29.76,NNE,15,6.0,9.3,8,0.00,,---,0.00,VWS V14.01,2013-04-29 19:22:00,
2013-04-29 13:23:00,76.7,9.9,29.76,NNE,30,3.3,9.2,8,0.00,,---,0.00,VWS V14.01,2013-04-29 19:23:00,
2013-04-29 13:24:00,76.7,10.7,29.76,North,0,0.0,5.5,8,0.00,,---,0.00,VWS V14.01,2013-04-29 19:24:00,
2013-04-29 13:25:00,76.8,10.8,29.76,ENE,66,6.3,9.9,8,0.00,,---,0.00,VWS V14.01,2013-04-29 19:25:00,
2013-04-29 13:26:00,76.8,10.5,29.76,NNE,25,6.1,10.4,8,0.00,,---,0.00,VWS V14.01,2013-04-29 19:26:00,
2013-04-29 13:27:00,76.8,9.9,29.76,NNE,17,0.0,7.5,8,0.00,,---,0.00,VWS V14.01,2013-04-29 19:27:00,
2013-04-29 13:28:00,76.8,10.5,29.76,NW,308,4.8,6.2,8,0.00,,---,0.00,VWS V14.01,2013-04-29 19:28:00,
2013-04-29 13:29:00,77.0,12.3,29.76,NNW,332,0.0,7.4,8,0.00,,---,0.00,VWS V14.01,2013-04-29 19:29:00,
2013-04-29 13:30:00,77.2,11.9,29.76,ENE,62,5.1,10.1,8,0.00,,---,0.00,VWS V14.01,2013-04-29 19:30:00,
2013-04-29 13:31:00,76.9,13.8,29.76,WNW,292,0.0,14.9,9,0.00,,---,39.37,VWS V14.01,2013-04-29 19:31:00,
2013-04-29 13:32:00,99.3,89.2,0.00,NNE,27,7.3,7.4,73,0.00,,---,8.12,VWS V14.01,2013-04-29 19:32:00,
2013-04-29 13:33:00,77.4,0.0,29.76,NNE,27,0.0,0.0,0,0.00,,---,0.00,VWS V14.01,2013-04-29 19:33:00,
2013-04-29 13:34:00,77.5,12.4,29.76,NNE,28,3.0,14.9,8,0.00,,---,0.00,VWS V14.01,2013-04-29 19:34:00,
2013-04-29 13:35:00,77.5,0.0,29.48,North,0,8.8,14.9,0,0.00,,---,7.52,VWS V14.01,2013-04-29 19:35:00,
2013-04-29 13:36:00,77.6,12.0,29.76,North,11,9.9,10.2,8,0.00,,---,0.00,VWS V14.01,2013-04-29 19:36:00,
2013-04-29 13:37:00,77.6,10.5,29.76,NNE,20,9.7,11.9,8,0.00,,---,0.00,VWS V14.01,2013-04-29 19:37:00,
2013-04-29 13:38:00,77.6,10.5,29.75,NNE,21,5.7,9.3,8,0.00,,---,0.00,VWS V14.01,2013-04-29 19:38:00,
2013-04-29 13:39:00,76.4,13.9,29.77,ENE,69,7.6,14.4,9,0.00,,---,7.79,VWS V14.01,2013-04-29 19:39:00,
2013-04-29 13:40:00,77.6,11.4,29.75,NNE,31,10.3,12.0,8,0.00,,---,0.00,VWS V14.01,2013-04-29 19:40:00,
2013-04-29 13:41:00,77.2,14.1,29.77,North,4,6.8,11.6,9,0.00,,---,1.70,VWS V14.01,2013-04-29 19:41:00,
2013-04-29 13:42:00,77.6,12.5,29.75,NW,325,10.5,11.2,8,0.00,,---,0.00,VWS V14.01,2013-04-29 19:42:00,
2013-04-29 13:43:00,77.6,11.7,29.75,NW,323,5.1,7.8,8,0.00,,---,0.00,VWS V14.01,2013-04-29 19:43:00,
2013-04-29 13:44:00,77.6,11.7,29.75,WNW,300,0.0,0.0,8,0.00,,---,0.00,VWS V14.01,2013-04-29 19:44:00,
2013-04-29 13:45:00,77.7,12.0,29.75,NE,44,4.1,4.1,8,1.43,,---,0.00,VWS V14.01,2013-04-29 19:45:00,
2013-04-29 13:46:00,77.7,10.9,29.75,North,1,3.0,7.5,8,0.00,,---,0.00,VWS V14.01,2013-04-29 19:46:00,
2013-04-29 13:47:00,77.7,11.2,29.75,NNW,345,0.0,7.3,8,0.00,,---,0.00,VWS V14.01,2013-04-29 19:47:00,
2013-04-29 13:48:00,77.9,13.0,29.74,NNW,345,0.0,1.4,8,0.00,,---,0.00,VWS V14.01,2013-04-29 19:48:00,
2013-04-29 13:49:00,77.9,12.5,29.74,NNW,345,0.0,0.0,8,0.00,,---,0.00,VWS V14.01,2013-04-29 19:49:00,
2013-04-29 13:50:00,78.0,11.1,29.74,NNW,345,0.0,0.0,8,0.00,,---,0.00,VWS V14.01,2013-04-29 19:50:00,
2013-04-29 13:51:00,78.2,13.5,29.74,NNW,345,0.0,7.3,8,0.00,,---,0.00,VWS V14.01,2013-04-29 19:51:00,
2013-04-29 13:52:00,78.4,14.7,29.74,ENE,60,0.0,3.4,9,0.21,,---,0.00,VWS V14.01,2013-04-29 19:52:00,
2013-04-29 13:53:00,78.5,12.1,29.74,NNW,329,7.0,7.9,8,0.00,,---,0.00,VWS V14.01,2013-04-29 19:53:00,
2013-04-29 13:54:00,75.3,67.0,5.29,NNE,32,5.0,8.0,75,0.00,,---,1.18,VWS V14.01,2013-04-29 19:54:00,
2013-04-29 13:55:00,78.6,0.0,29.68,NNE,32,0.0,9.6,0,0.00,,---,99.99,VWS V14.01,2013-04-29 19:55:00,
2013-04-29 13:56:00,78.6,-3.7,0.45,East,84,0.0,7.3,4,1.44,,---,1.18,VWS V14.01,2013-04-29 19:56:00,
2013-04-29 13:57:00,78.6,10.1,29.74,SE,125,5.0,8.3,7,0.00,,---,0.00,VWS V14.01,2013-04-29 19:57:00,
2013-04-29 13:58:00,78.6,10.1,29.74,East,101,6.3,7.3,7,0.00,,---,0.00,VWS V14.01,2013-04-29 19:58:00,
2013-04-29 13:59:00,78.6,10.7,29.74,ENE,66,0.0,6.0,7,0.00,,---,0.00,VWS V14.01,2013-04-29 19:59:00,
2013-04-29 14:00:00,78.6,12.1,29.74,ENE,66,0.0,2.9,8,0.00,,---,0.00,VWS V14.01,2013-04-29 20:00:00,
2013-04-29 14:01:00,78.6,11.9,29.74,ENE,66,0.0,0.0,8,0.00,,---,0.00,VWS V14.01,2013-04-29 20:01:00,
2013-04-29 14:02:00,78.7,11.3,29.74,North,8,0.0,3.4,8,0.00,,---,0.00,VWS V14.01,2013-04-29 20:02:00,
2013-04-29 14:03:00,78.9,10.3,29.74,WNW,294,7.8,9.9,7,0.00,,---,0.00,VWS V14.01,2013-04-29 20:03:00,
2013-04-29 14:04:00,78.9,67.1,29.77,NW,322,3.4,5.7,67,0.00,,---,8.44,VWS V14.01,2013-04-29 20:04:00,
2013-04-29 14:05:00,78.9,12.4,29.74,NW,307,0.0,7.3,8,0.00,,---,0.00,VWS V14.01,2013-04-29 20:05:00,
2013-04-29 14:06:00,79.1,11.6,29.74,WNW,290,7.4,8.3,8,0.00,,---,0.00,VWS V14.01,2013-04-29 20:06:00,
2013-04-29 14:07:00,79.4,13.3,29.74,West,280,0.0,5.2,8,0.00,,---,0.00,VWS V14.01,2013-04-29 20:07:00,
2013-04-29 14:08:00,76.6,14.6,29.77,North,10,6.3,10.8,9,1.43,,---,0.00,VWS V14.01,2013-04-29 20:08:00,
2013-04-29 14:09:00,5.1,-43.6,29.74,North,0,4.9,5.2,8,0.00,,---,2.00,VWS V14.01,2013-04-29 20:09:00,
2013-04-29 14:10:00,79.9,14.2,29.73,NNW,338,2.9,15.0,8,0.00,,---,0.00,VWS V14.01,2013-04-29 20:10:00,
2013-04-29 14:11:00,79.8,12.2,29.73,NNW,338,0.0,0.0,8,0.00,,---,0.00,VWS V14.01,2013-04-29 20:11:00,
2013-04-29 14:12:00,80.0,10.5,29.73,NE,42,0.0,6.0,7,0.00,,---,0.00,VWS V14.01,2013-04-29 20:12:00,
2013-04-29 14:13:00,80.0,10.5,29.73,ENE,76,0.0,7.3,7,0.00,,---,0.47,VWS V14.01,2013-04-29 20:13:00,
2013-04-29 14:14:00,80.0,9.5,29.73,East,87,0.0,3.3,7,0.00,,---,0.00,VWS V14.01,2013-04-29 20:14:00,
2013-04-29 14:15:00,81.5,69.6,35.82,East,87,0.0,0.0,67,0.00,,---,0.00,VWS V14.01,2013-04-29 20:15:00,
2013-04-29 14:16:00,80.1,8.9,29.73,NNW,347,0.0,3.5,6,0.00,,---,2.41,VWS V14.01,2013-04-29 20:16:00,
2013-04-29 14:17:00,76.5,13.5,29.77,NNE,24,7.1,7.8,9,0.00,,---,0.00,VWS V14.01,2013-04-29 20:17:00,
2013-04-29 14:18:00,77.0,-30.7,29.57,NNW,340,7.3,10.0,1,0.00,,---,7.97,VWS V14.01,2013-04-29 20:18:00,
2013-04-29 14:19:00,80.3,-27.0,29.73,NW,309,0.0,6.0,1,0.00,,---,0.00,VWS V14.01,2013-04-29 20:19:00,
2013-04-29 14:20:00,80.4,13.2,29.73,North,359,0.0,4.2,8,0.00,,---,0.00,VWS V14.01,2013-04-29 20:20:00,
2013-04-29 14:21:00,76.3,65.7,0.53,NE,46,11.2,15.7,70,0.00,,---,1.74,VWS V14.01,2013-04-29 20:21:00,
2013-04-29 14:22:00,77.6,11.7,29.76,NE,56,9.9,10.2,8,0.00,,---,7.52,VWS V14.01,2013-04-29 20:22:00,
2013-04-29 14:23:00,76.9,10.3,29.76,North,7,10.4,16.8,8,0.00,,---,7.51,VWS V14.01,2013-04-29 20:23:00,
2013-04-29 14:24:00,80.6,10.6,29.73,NNE,14,0.0,7.3,7,0.00,,---,1.18,VWS V14.01,2013-04-29 20:24:00,
2013-04-29 14:25:00,77.0,10.9,29.76,NNW,332,8.2,12.6,8,0.00,,---,0.00,VWS V14.01,2013-04-29 20:25:00,
2013-04-29 14:26:00,76.4,14.2,29.77,North,359,3.4,14.9,9,0.00,,---,0.00,VWS V14.01,2013-04-29 20:26:00,
2013-04-29 14:27:00,80.9,13.0,29.73,West,262,4.7,5.8,8,0.00,,---,0.00,VWS V14.01,2013-04-29 20:27:00,
2013-04-29 14:28:00,81.0,13.3,29.73,WNW,297,0.0,15.0,8,0.00,,---,1.00,VWS V14.01,2013-04-29 20:28:00,
2013-04-29 14:29:00,81.1,14.3,29.73,West,260,0.0,5.2,8,0.00,,---,0.00,VWS V14.01,2013-04-29 20:29:00,
2013-04-29 14:30:00,81.4,13.9,5.54,WSW,239,7.3,7.3,8,0.00,,---,0.00,VWS V14.01,2013-04-29 20:30:00,
2013-04-29 14:31:00,81.5,15.7,29.73,WSW,239,0.0,0.0,8,0.00,,---,0.00,VWS V14.01,2013-04-29 20:31:00,
2013-04-29 14:32:00,76.5,66.0,0.29,North,353,6.8,9.6,70,0.00,,---,0.12,VWS V14.01,2013-04-29 20:32:00,
2013-04-29 14:33:00,82.0,14.4,29.73,SW,226,0.0,1.7,8,0.00,,---,0.00,VWS V14.01,2013-04-29 20:33:00,
2013-04-29 14:34:00,81.9,16.0,29.73,SW,226,0.0,0.0,8,0.00,,---,0.00,VWS V14.01,2013-04-29 20:34:00,
2013-04-29 14:35:00,82.0,16.3,29.73,SW,226,0.0,0.0,8,0.00,,---,0.00,VWS V14.01,2013-04-29 20:35:00,
2013-04-29 14:36:00,73.9,67.2,0.00,ESE,117,0.0,7.3,80,0.00,,---,0.00,VWS V14.01,2013-04-29 20:36:00,
2013-04-29 14:37:00,76.8,14.0,29.76,NW,319,8.4,14.9,9,0.00,,---,7.83,VWS V14.01,2013-04-29 20:37:00,
2013-04-29 14:38:00,99.5,92.2,0.00,South,181,3.3,10.0,80,0.00,,---,7.54,VWS V14.01,2013-04-29 20:38:00,
2013-04-29 14:39:00,82.4,14.4,29.72,SSW,197,4.8,6.1,8,0.00,,---,0.00,VWS V14.01,2013-04-29 20:39:00,
2013-04-29 14:40:00,82.5,15.3,29.72,South,170,0.0,7.3,8,0.00,,---,0.00,VWS V14.01,2013-04-29 20:40:00,
2013-04-29 14:41:00,82.6,15.7,29.72,SSW,200,3.5,8.1,8,0.00,,---,0.73,VWS V14.01,2013-04-29 20:41:00,
2013-04-29 14:42:00,82.8,74.6,0.00,SSE,162,0.0,7.0,76,0.00,,---,1.65,VWS V14.01,2013-04-29 20:42:00,
2013-04-29 14:43:00,77.0,15.1,29.76,WNW,288,0.0,1.1,10,0.00,,---,7.88,VWS V14.01,2013-04-29 20:43:00,
2013-04-29 14:44:00,-1.0,-6.6,29.48,North,0,7.2,9.9,76,0.00,,---,1.59,VWS V14.01,2013-04-29 20:44:00,
2013-04-29 14:45:00,82.8,12.8,29.72,SSW,204,0.0,6.0,7,0.00,,---,0.00,VWS V14.01,2013-04-29 20:45:00,
2013-04-29 14:46:00,77.6,10.5,29.75,North,354,4.3,10.1,8,0.00,,---,8.20,VWS V14.01,2013-04-29 20:46:00,
2013-04-29 14:47:00,82.6,11.4,29.72,SSW,204,0.0,0.0,7,0.00,,---,8.41,VWS V14.01,2013-04-29 20:47:00,
2013-04-29 14:48:00,10.3,-43.7,0.00,North,0,8.8,8.8,6,0.00,,---,0.00,VWS V14.01,2013-04-29 20:48:00,
2013-04-29 14:49:00,82.5,74.2,29.48,SSW,204,0.0,8.8,76,0.00,,---,1.51,VWS V14.01,2013-04-29 20:49:00,
2013-04-29 14:50:00,99.6,92.7,0.00,SSW,204,0.0,6.0,81,0.00,,---,0.72,VWS V14.01,2013-04-29 20:50:00,
2013-04-29 14:51:00,76.9,12.0,29.76,NNW,333,6.0,9.0,8,0.00,,---,7.96,VWS V14.01,2013-04-29 20:51:00,
2013-04-29 14:52:00,82.4,12.5,29.71,SSW,204,0.0,0.0,7,0.00,,---,0.00,VWS V14.01,2013-04-29 20:52:00,
2013-04-29 14:53:00,82.5,11.0,29.71,SSW,204,0.0,0.0,7,0.00,,---,0.00,VWS V14.01,2013-04-29 20:53:00,
2013-04-29 14:54:00,82.2,10.1,29.71,SSW,204,0.0,0.0,6,0.00,,---,0.00,VWS V14.01,2013-04-29 20:54:00,
2013-04-29 14:55:00,82.2,10.7,29.71,North,3,5.0,7.3,7,0.00,,---,0.00,VWS V14.01,2013-04-29 20:55:00,
2013-04-29 14:56:00,77.6,10.5,29.75,North,359,8.5,12.0,8,0.00,,---,0.07,VWS V14.01,2013-04-29 20:56:00,
2013-04-29 14:57:00,81.9,7.7,29.71,NNE,31,0.0,0.0,6,0.00,,---,0.00,VWS V14.01,2013-04-29 20:57:00,
2013-04-29 14:58:00,81.8,7.6,29.71,NNE,31,0.0,8.6,6,0.00,,---,0.00,VWS V14.01,2013-04-29 20:58:00,
2013-04-29 14:59:00,81.7,9.3,29.71,WNW,301,0.0,4.6,6,0.00,,---,0.00,VWS V14.01,2013-04-29 20:59:00,
2013-04-29 15:00:00,81.6,10.6,29.71,WNW,301,0.0,0.0,7,0.00,,---,0.00,VWS V14.01,2013-04-29 21:00:00,
2013-04-29 15:01:00,81.4,10.8,29.71,WNW,301,0.0,3.9,7,0.00,,---,0.00,VWS V14.01,2013-04-29 21:01:00,
2013-04-29 15:02:00,77.2,12.2,29.69,NNW,339,2.9,4.5,8,0.00,,---,1.63,VWS V14.01,2013-04-29 21:02:00,
2013-04-29 15:03:00,81.0,7.0,29.71,North,3,6.4,8.1,6,0.00,,---,0.00,VWS V14.01,2013-04-29 21:03:00,
2013-04-29 15:04:00,80.8,6.1,29.71,West,278,6.0,11.2,6,0.00,,---,0.00,VWS V14.01,2013-04-29 21:04:00,
2013-04-29 15:05:00,80.5,0.0,29.71,NNE,24,6.3,9.4,0,0.00,,---,99.99,VWS V14.01,2013-04-29 21:05:00,
2013-04-29 15:10:00,77.6,0.0,29.75,North,354,6.5,9.3,0,0.00,,---,7.91,VWS V14.01,2013-04-29 21:10:00,
2013-04-29 15:12:00,82.3,10.1,29.71,SSW,204,0.0,0.0,6,0.00,,---,0.00,VWS V14.01,2013-04-29 21:12:00,
2013-04-29 15:13:00,82.9,76.2,29.72,SSW,204,0.0,9.9,80,0.00,,---,99.99,VWS V14.01,2013-04-29 21:13:00,
2013-04-29 15:15:00,80.1,9.6,29.73,East,87,0.0,0.0,7,0.00,,---,0.00,VWS V14.01,2013-04-29 21:15:00,
2013-04-29 15:22:00,78.2,13.5,29.74,NNW,345,0.0,7.3,8,0.00,,---,7.97,VWS V14.01,2013-04-29 21:22:00,
2013-04-29 15:26:00,80.9,12.4,29.73,WNW,291,0.0,5.8,7,0.00,,---,0.00,VWS V14.01,2013-04-29 21:26:00,
2013-04-29 15:28:00,81.1,13.7,29.73,West,260,3.2,5.2,8,0.00,,---,0.00,VWS V14.01,2013-04-29 21:28:00,
2013-04-29 15:32:00,83.0,16.8,29.72,SSW,204,0.0,6.0,8,0.00,,---,0.00,VWS V14.01,2013-04-29 21:32:00,
2013-04-29 15:42:00,80.0,9.8,29.73,ENE,76,0.0,7.3,7,0.00,,---,1.48,VWS V14.01,2013-04-29 21:42:00,
2013-04-29 15:53:00,80.4,8.4,29.73,NNE,14,0.0,15.0,6,0.00,,---,1.47,VWS V14.01,2013-04-29 21:53:00,
2013-04-29 16:05:00,81.8,13.6,29.73,SW,226,0.0,1.7,8,0.00,,---,1.57,VWS V14.01,2013-04-29 22:05:00,
2013-04-29 16:06:00,80.9,12.7,29.73,West,281,4.3,5.8,8,0.00,,---,8.24,VWS V14.01,2013-04-29 22:06:00,
2013-04-29 16:22:00,81.6,11.3,29.71,WNW,301,0.0,13.3,7,0.00,,---,8.31,VWS V14.01,2013-04-29 22:22:00,
2013-04-29 16:29:00,81.9,0.0,2.65,South,191,0.0,0.0,0,0.00,,---,0.00,VWS V14.01,2013-04-29 22:29:00,
2013-04-29 16:42:00,77.8,7.9,29.67,NW,307,0.0,0.0,7,0.00,,---,0.00,VWS V14.01,2013-04-29 22:42:00,
2013-04-29 16:46:00,77.8,9.2,29.68,NW,307,0.0,0.0,7,0.00,,---,0.00,VWS V14.01,2013-04-29 22:46:00,
2013-04-29 16:50:00,81.8,13.6,29.73,SW,226,0.0,1.7,8,0.00,,---,1.57,VWS V14.01,2013-04-29 22:50:00,
2013-04-29 16:51:00,77.8,11.0,29.68,South,177,0.0,0.0,8,0.00,,---,0.00,VWS V14.01,2013-04-29 22:51:00,
2013-04-29 16:52:00,77.7,12.9,29.68,South,177,0.0,0.0,8,0.00,,---,0.00,VWS V14.01,2013-04-29 22:52:00,
2013-04-29 16:53:00,77.8,13.5,29.68,South,177,0.0,0.0,9,0.00,,---,0.00,VWS V14.01,2013-04-29 22:53:00,
2013-04-29 16:54:00,77.8,13.2,29.68,South,177,0.0,0.0,8,0.00,,---,0.00,VWS V14.01,2013-04-29 22:54:00,
2013-04-29 16:55:00,77.8,12.9,29.68,South,177,0.0,0.0,8,0.00,,---,0.00,VWS V14.01,2013-04-29 22:55:00,
2013-04-29 16:56:00,77.8,12.9,29.67,South,177,0.0,0.0,8,0.00,,---,0.00,VWS V14.01,2013-04-29 22:56:00,
2013-04-29 16:57:00,77.8,12.7,29.68,WNW,294,0.0,0.0,8,0.00,,---,0.00,VWS V14.01,2013-04-29 22:57:00,
2013-04-29 16:58:00,77.8,12.4,29.67,WNW,294,0.0,0.0,8,0.00,,---,0.00,VWS V14.01,2013-04-29 22:58:00,
2013-04-29 16:59:00,77.8,12.4,29.68,WNW,294,0.0,0.0,8,0.00,,---,0.00,VWS V14.01,2013-04-29 22:59:00,
2013-04-29 17:00:00,77.8,11.6,29.67,WNW,294,0.0,0.0,8,0.00,,---,0.00,VWS V14.01,2013-04-29 23:00:00,
2013-04-29 17:01:00,77.8,11.8,29.67,WNW,294,0.0,0.0,8,0.00,,---,0.00,VWS V14.01,2013-04-29 23:01:00,
2013-04-29 17:02:00,77.8,11.8,29.67,WNW,294,0.0,0.0,8,0.00,,---,0.00,VWS V14.01,2013-04-29 23:02:00,
2013-04-29 17:03:00,77.8,11.6,29.68,NW,304,0.0,0.0,8,0.00,,---,0.00,VWS V14.01,2013-04-29 23:03:00,
2013-04-29 17:04:00,69.7,21.1,29.66,WNW,284,0.0,14.7,16,0.00,,---,0.00,VWS V14.01,2013-04-29 23:04:00,
2013-04-29 17:05:00,69.1,20.5,0.00,WNW,284,0.0,6.0,16,1.10,,---,0.00,VWS V14.01,2013-04-29 23:05:00,
2013-04-29 17:06:00,77.7,11.5,29.67,NW,304,0.0,0.0,8,0.00,,---,0.00,VWS V14.01,2013-04-29 23:06:00,
2013-04-29 17:07:00,77.7,11.5,29.67,NW,304,0.0,0.0,8,0.00,,---,0.00,VWS V14.01,2013-04-29 23:07:00,
2013-04-29 17:08:00,77.7,12.3,29.68,NW,304,0.0,0.0,8,0.00,,---,0.00,VWS V14.01,2013-04-29 23:08:00,
2013-04-29 17:09:00,69.0,19.5,29.67,WNW,292,0.0,6.0,15,0.00,,---,0.00,VWS V14.01,2013-04-29 23:09:00,
2013-04-29 17:10:00,77.6,10.2,29.67,NW,304,0.0,0.0,8,0.00,,---,0.00,VWS V14.01,2013-04-29 23:10:00,
2013-04-29 17:11:00,77.6,10.2,29.67,NW,304,0.0,0.0,8,0.00,,---,0.00,VWS V14.01,2013-04-29 23:11:00,
2013-04-29 17:12:00,77.6,10.2,29.67,NW,304,0.0,0.0,8,0.00,,---,0.00,VWS V14.01,2013-04-29 23:12:00,
2013-04-29 17:13:00,77.6,10.8,29.67,NW,304,0.0,0.0,8,0.00,,---,0.00,VWS V14.01,2013-04-29 23:13:00,
2013-04-29 17:14:00,77.6,10.5,29.67,NW,304,0.0,0.0,8,0.00,,---,0.00,VWS V14.01,2013-04-29 23:14:00,
2013-04-29 17:15:00,77.6,10.5,29.67,NW,304,0.0,0.0,8,0.00,,---,0.00,VWS V14.01,2013-04-29 23:15:00,
2013-04-29 17:16:00,77.6,11.4,29.67,NW,304,0.0,0.0,8,0.00,,---,0.00,VWS V14.01,2013-04-29 23:16:00,
2013-04-29 17:17:00,77.6,11.4,29.67,NW,304,0.0,0.0,8,0.00,,---,0.00,VWS V14.01,2013-04-29 23:17:00,
2013-04-29 17:18:00,77.5,12.2,29.67,NW,304,0.0,0.0,8,0.00,,---,0.00,VWS V14.01,2013-04-29 23:18:00,
2013-04-29 17:19:00,77.5,12.2,29.67,WNW,284,2.4,4.3,8,0.00,,---,0.00,VWS V14.01,2013-04-29 23:19:00,
2013-04-29 17:20:00,77.4,12.9,29.67,West,277,0.0,0.0,8,0.00,,---,0.00,VWS V14.01,2013-04-29 23:20:00,
2013-04-29 17:21:00,77.4,13.4,29.67,West,274,0.0,2.8,9,0.00,,---,0.00,VWS V14.01,2013-04-29 23:21:00,
2013-04-29 17:22:00,77.4,13.4,29.67,West,274,0.0,2.8,9,0.00,,---,0.00,VWS V14.01,2013-04-29 23:22:00,
2013-04-29 17:23:00,77.3,12.8,29.67,West,274,0.0,0.0,8,0.00,,---,0.00,VWS V14.01,2013-04-29 23:23:00,
2013-04-29 17:24:00,77.2,12.8,29.67,West,274,0.0,0.0,8,0.00,,---,0.00,VWS V14.01,2013-04-29 23:24:00,
2013-04-29 17:25:00,77.2,13.3,29.67,West,274,0.0,0.0,9,0.00,,---,0.00,VWS V14.01,2013-04-29 23:25:00,
2013-04-29 17:26:00,77.2,12.8,29.67,West,274,0.0,0.0,8,0.00,,---,0.00,VWS V14.01,2013-04-29 23:26:00,
2013-04-29 17:27:00,77.2,12.8,29.67,West,274,0.0,0.0,8,0.00,,---,0.00,VWS V14.01,2013-04-29 23:27:00,
2013-04-29 17:28:00,77.0,12.1,29.67,West,274,0.0,0.0,8,0.00,,---,0.00,VWS V14.01,2013-04-29 23:28:00,
2013-04-29 17:29:00,76.9,12.5,29.67,West,274,0.0,0.0,8,0.00,,---,0.00,VWS V14.01,2013-04-29 23:29:00,
2013-04-29 17:30:00,76.9,12.5,29.67,WSW,248,0.0,5.2,8,0.00,,---,0.00,VWS V14.01,2013-04-29 23:30:00,
2013-04-29 17:31:00,76.8,13.5,29.67,WSW,243,0.0,0.0,9,0.00,,---,0.00,VWS V14.01,2013-04-29 23:31:00,
2013-04-29 17:32:00,76.8,13.5,29.67,WSW,243,0.0,0.0,9,0.00,,---,0.00,VWS V14.01,2013-04-29 23:32:00,
2013-04-29 17:33:00,76.7,12.9,29.67,WSW,243,0.0,0.0,9,0.00,,---,0.00,VWS V14.01,2013-04-29 23:33:00,
2013-04-29 17:34:00,76.7,12.9,29.67,WSW,243,0.0,0.0,9,0.00,,---,0.00,VWS V14.01,2013-04-29 23:34:00,
2013-04-29 17:35:00,76.6,11.8,29.67,WSW,243,0.0,0.0,8,0.00,,---,0.00,VWS V14.01,2013-04-29 23:35:00,
2013-04-29 17:36:00,76.6,11.2,29.67,WSW,243,0.0,0.0,8,0.00,,---,0.00,VWS V14.01,2013-04-29 23:36:00,
2013-04-29 17:37:00,76.6,11.2,29.67,WSW,243,0.0,0.0,8,0.00,,---,0.00,VWS V14.01,2013-04-29 23:37:00,
2013-04-29 17:38:00,76.6,11.8,29.67,WSW,243,0.0,0.0,8,0.00,,---,0.00,VWS V14.01,2013-04-29 23:38:00,
2013-04-29 17:39:00,76.6,11.5,29.67,WSW,243,0.0,0.0,8,0.00,,---,0.00,VWS V14.01,2013-04-29 23:39:00,
2013-04-29 17:40:00,76.6,9.5,29.67,WSW,243,0.0,0.0,8,0.00,,---,0.00,VWS V14.01,2013-04-29 23:40:00,
2013-04-29 17:41:00,76.5,9.1,29.67,WSW,243,0.0,0.0,7,0.00,,---,0.00,VWS V14.01,2013-04-29 23:41:00,
2013-04-29 17:42:00,76.5,9.1,29.67,WSW,243,0.0,0.0,7,0.00,,---,0.00,VWS V14.01,2013-04-29 23:42:00,
2013-04-29 17:43:00,76.6,10.4,29.67,WSW,243,0.0,0.0,8,0.00,,---,0.00,VWS V14.01,2013-04-29 23:43:00,
2013-04-29 17:44:00,76.5,10.0,29.67,WSW,243,0.0,0.0,8,0.00,,---,0.00,VWS V14.01,2013-04-29 23:44:00,
2013-04-29 17:45:00,76.6,10.4,29.67,WSW,243,0.0,0.0,8,0.00,,---,0.00,VWS V14.01,2013-04-29 23:45:00,
2013-04-29 17:46:00,76.6,10.4,29.67,WSW,243,0.0,0.0,8,0.00,,---,0.00,VWS V14.01,2013-04-29 23:46:00,
2013-04-29 17:47:00,76.6,10.4,29.66,WSW,243,0.0,0.0,8,0.00,,---,0.00,VWS V14.01,2013-04-29 23:47:00,
2013-04-29 17:48:00,76.6,10.9,29.67,WSW,243,0.0,0.0,8,0.00,,---,0.00,VWS V14.01,2013-04-29 23:48:00,
2013-04-29 17:49:00,76.5,12.2,29.67,WSW,243,0.0,0.0,8,0.00,,---,0.00,VWS V14.01,2013-04-29 23:49:00,
2013-04-29 17:50:00,76.6,12.3,29.66,WSW,243,0.0,0.0,8,0.00,,---,0.00,VWS V14.01,2013-04-29 23:50:00,
2013-04-29 17:51:00,76.5,12.0,29.67,WSW,243,0.0,0.0,8,0.00,,---,0.00,VWS V14.01,2013-04-29 23:51:00,
2013-04-29 17:52:00,76.5,12.0,29.66,WSW,243,0.0,0.0,8,0.00,,---,0.00,VWS V14.01,2013-04-29 23:52:00,
2013-04-29 17:53:00,76.5,12.2,29.66,WSW,243,0.0,0.0,8,0.00,,---,0.00,VWS V14.01,2013-04-29 23:53:00,
2013-04-29 17:54:00,76.5,12.2,29.66,WSW,243,0.0,0.0,8,0.00,,---,0.00,VWS V14.01,2013-04-29 23:54:00,
2013-04-29 17:55:00,76.5,12.2,29.66,WSW,243,0.0,0.0,8,0.00,,---,0.00,VWS V14.01,2013-04-29 23:55:00,
2013-04-29 17:56:00,76.4,10.8,29.66,WSW,243,0.0,0.0,8,0.00,,---,0.00,VWS V14.01,2013-04-29 23:56:00,
2013-04-29 17:57:00,76.4,10.8,29.66,WSW,243,0.0,0.0,8,0.00,,---,0.00,VWS V14.01,2013-04-29 23:57:00,
2013-04-29 17:58:00,76.4,11.1,29.66,WSW,243,0.0,0.0,8,0.00,,---,0.00,VWS V14.01,2013-04-29 23:58:00,
2013-04-29 17:59:00,76.4,12.1,29.66,WSW,243,0.0,0.0,8,0.00,,---,0.00,VWS V14.01,2013-04-29 23:59:00,
2013-04-29 18:00:00,76.3,12.1,29.66,WSW,243,0.0,0.0,8,0.00,,---,0.00,VWS V14.01,2013-04-30 00:00:00,
2013-04-29 18:01:00,76.3,12.1,29.66,WSW,243,0.0,0.0,8,0.00,,---,0.00,VWS V14.01,2013-04-30 00:01:00,
2013-04-29 18:02:00,76.3,12.1,29.66,WSW,243,0.0,0.0,8,0.00,,---,0.00,VWS V14.01,2013-04-30 00:02:00,
2013-04-29 18:03:00,76.3,12.6,29.67,WSW,243,0.0,0.0,9,0.00,,---,0.00,VWS V14.01,2013-04-30 00:03:00,
2013-04-29 18:04:00,76.3,13.1,29.67,WSW,243,0.0,0.0,9,0.00,,---,0.00,VWS V14.01,2013-04-30 00:04:00,
2013-04-29 18:05:00,76.2,13.0,29.67,WSW,243,0.0,0.0,9,0.00,,---,0.00,VWS V14.01,2013-04-30 00:05:00,
2013-04-29 18:06:00,76.2,11.5,29.67,WSW,243,0.0,0.0,8,0.00,,---,0.00,VWS V14.01,2013-04-30 00:06:00,
2013-04-29 18:07:00,76.2,11.5,29.66,WSW,243,0.0,0.0,8,0.00,,---,0.00,VWS V14.01,2013-04-30 00:07:00,
2013-04-29 18:08:00,76.2,12.0,29.67,WSW,243,0.0,0.0,8,0.00,,---,0.00,VWS V14.01,2013-04-30 00:08:00,
2013-04-29 18:09:00,69.2,18.8,29.67,West,280,0.0,6.0,14,0.00,,---,7.68,VWS V14.01,2013-04-30 00:09:00,
2013-04-29 18:10:00,76.2,12.5,29.67,WSW,243,0.0,0.0,9,0.00,,---,0.00,VWS V14.01,2013-04-30 00:10:00,
2013-04-29 18:11:00,76.2,12.0,29.67,WSW,243,0.0,0.0,8,0.00,,---,0.00,VWS V14.01,2013-04-30 00:11:00,
2013-04-29 18:12:00,76.2,12.0,29.66,WSW,243,0.0,0.0,8,0.00,,---,0.00,VWS V14.01,2013-04-30 00:12:00,
2013-04-29 18:13:00,76.2,11.2,29.66,WSW,243,0.0,0.0,8,0.00,,---,0.00,VWS V14.01,2013-04-30 00:13:00,
2013-04-29 18:14:00,76.2,12.0,29.66,WSW,243,0.0,0.0,8,0.00,,---,0.00,VWS V14.01,2013-04-30 00:14:00,
2013-04-29 18:15:00,76.0,10.8,29.66,WSW,243,0.0,0.0,8,0.00,,---,0.00,VWS V14.01,2013-04-30 00:15:00,
2013-04-29 18:16:00,76.0,10.5,29.66,WSW,243,0.0,0.0,8,0.00,,---,0.00,VWS V14.01,2013-04-30 00:16:00,
2013-04-29 18:17:00,76.0,10.8,29.66,WSW,243,0.0,0.0,8,0.00,,---,0.00,VWS V14.01,2013-04-30 00:17:00,
2013-04-29 18:18:00,76.0,10.5,29.66,WSW,243,0.0,0.0,8,0.00,,---,0.00,VWS V14.01,2013-04-30 00:18:00,
2013-04-29 18:19:00,75.9,10.4,29.66,WSW,243,0.0,0.0,8,0.00,,---,0.00,VWS V14.01,2013-04-30 00:19:00,
2013-04-29 18:20:00,75.9,10.7,29.66,WSW,243,0.0,0.0,8,0.00,,---,0.00,VWS V14.01,2013-04-30 00:20:00,
2013-04-29 18:21:00,75.8,10.3,29.66,WSW,243,0.0,0.0,8,0.00,,---,0.00,VWS V14.01,2013-04-30 00:21:00,
2013-04-29 18:22:00,75.9,10.4,29.66,WSW,243,0.0,0.0,8,0.00,,---,0.00,VWS V14.01,2013-04-30 00:22:00,
2013-04-29 18:23:00,75.8,10.9,29.66,WSW,243,0.0,0.0,8,0.00,,---,0.00,VWS V14.01,2013-04-30 00:23:00,
2013-04-29 18:24:00,75.8,11.2,29.66,WSW,243,0.0,0.0,8,0.00,,---,0.00,VWS V14.01,2013-04-30 00:24:00,
2013-04-29 18:25:00,75.7,10.8,29.66,WSW,243,0.0,0.0,8,0.00,,---,0.00,VWS V14.01,2013-04-30 00:25:00,
2013-04-29 18:26:00,75.7,10.6,29.66,WSW,243,0.0,0.0,8,0.00,,---,0.00,VWS V14.01,2013-04-30 00:26:00,
2013-04-29 18:27:00,75.7,10.6,29.66,WSW,243,0.0,0.0,8,0.00,,---,0.00,VWS V14.01,2013-04-30 00:27:00,
2013-04-29 18:28:00,75.6,12.1,29.66,WSW,243,0.0,0.0,9,0.00,,---,0.00,VWS V14.01,2013-04-30 00:28:00,
2013-04-29 18:29:00,75.6,12.1,29.66,WSW,243,0.0,0.0,9,0.00,,---,0.00,VWS V14.01,2013-04-30 00:29:00,
2013-04-29 18:30:00,75.6,11.6,29.66,WSW,243,0.0,0.0,8,0.00,,---,0.00,VWS V14.01,2013-04-30 00:30:00,
2013-04-29 18:31:00,75.5,10.9,29.66,WSW,243,0.0,0.0,8,0.00,,---,0.00,VWS V14.01,2013-04-30 00:31:00,
2013-04-29 18:32:00,75.5,10.7,29.66,WSW,243,0.0,0.0,8,0.00,,---,0.00,VWS V14.01,2013-04-30 00:32:00,
2013-04-29 18:33:00,75.4,10.3,29.66,WSW,243,0.0,0.0,8,0.00,,---,0.00,VWS V14.01,2013-04-30 00:33:00,
2013-04-29 18:34:00,75.4,10.6,29.66,WSW,243,0.0,0.0,8,0.00,,---,0.00,VWS V14.01,2013-04-30 00:34:00,
2013-04-29 18:35:00,75.4,12.4,29.66,WSW,243,0.0,0.0,9,0.00,,---,0.00,VWS V14.01,2013-04-30 00:35:00,
2013-04-29 18:36:00,75.3,12.6,29.66,WSW,243,0.0,0.0,9,0.00,,---,0.00,VWS V14.01,2013-04-30 00:36:00,
2013-04-29 18:37:00,75.4,12.9,29.66,WSW,243,0.0,0.0,9,0.00,,---,0.00,VWS V14.01,2013-04-30 00:37:00,
2013-04-29 18:38:00,75.3,11.3,29.66,WSW,243,0.0,0.0,8,0.00,,---,0.00,VWS V14.01,2013-04-30 00:38:00,
2013-04-29 18:39:00,75.2,10.7,29.66,WSW,243,0.0,0.0,8,0.00,,---,0.00,VWS V14.01,2013-04-30 00:39:00,
2013-04-29 18:40:00,75.2,10.4,29.66,WSW,243,0.0,0.0,8,0.00,,---,0.00,VWS V14.01,2013-04-30 00:40:00,
2013-04-29 18:41:00,75.1,9.8,29.67,WSW,243,0.0,0.0,8,0.00,,---,0.00,VWS V14.01,2013-04-30 00:41:00,
2013-04-29 18:42:00,75.2,10.2,29.66,WSW,243,0.0,0.0,8,0.00,,---,0.00,VWS V14.01,2013-04-30 00:42:00,
2013-04-29 18:43:00,75.0,9.8,29.67,WSW,243,0.0,0.0,8,0.00,,---,0.00,VWS V14.01,2013-04-30 00:43:00,
2013-04-29 18:44:00,75.0,10.0,29.67,WSW,243,0.0,0.0,8,0.00,,---,0.00,VWS V14.01,2013-04-30 00:44:00,
2013-04-29 18:45:00,74.9,10.2,29.67,WSW,243,0.0,0.0,8,0.00,,---,0.00,VWS V14.01,2013-04-30 00:45:00,
2013-04-29 18:46:00,74.9,10.5,29.66,WSW,243,0.0,0.0,8,0.00,,---,0.00,VWS V14.01,2013-04-30 00:46:00,
2013-04-29 18:47:00,75.0,9.8,29.66,WSW,243,0.0,0.0,8,0.00,,---,0.00,VWS V14.01,2013-04-30 00:47:00,
2013-04-29 18:48:00,74.8,10.7,29.66,WSW,243,0.0,0.0,8,0.00,,---,0.00,VWS V14.01,2013-04-30 00:48:00,
2013-04-29 18:49:00,74.8,10.4,29.67,WSW,243,0.0,0.0,8,0.00,,---,0.00,VWS V14.01,2013-04-30 00:49:00,
2013-04-29 18:50:00,74.8,10.4,29.67,WSW,243,0.0,0.0,8,0.00,,---,0.00,VWS V14.01,2013-04-30 00:50:00,
2013-04-29 18:51:00,74.7,10.3,29.67,WSW,243,0.0,0.0,8,0.00,,---,0.00,VWS V14.01,2013-04-30 00:51:00,
2013-04-29 18:52:00,74.8,10.7,29.66,WSW,243,0.0,0.0,8,0.00,,---,0.00,VWS V14.01,2013-04-30 00:52:00,
2013-04-29 18:53:00,74.6,10.8,29.67,WSW,243,0.0,0.0,8,0.00,,---,0.00,VWS V14.01,2013-04-30 00:53:00,
2013-04-29 18:54:00,74.6,10.5,29.67,WSW,243,0.0,0.0,8,0.00,,---,0.00,VWS V14.01,2013-04-30 00:54:00,
2013-04-29 18:55:00,74.6,10.8,29.67,WSW,243,0.0,0.0,8,0.00,,---,0.00,VWS V14.01,2013-04-30 00:55:00,
2013-04-29 18:56:00,74.5,10.7,29.67,WSW,243,0.0,0.0,8,0.00,,---,0.00,VWS V14.01,2013-04-30 00:56:00,
2013-04-29 18:57:00,74.6,10.8,29.66,WSW,243,0.0,0.0,8,0.00,,---,0.00,VWS V14.01,2013-04-30 00:57:00,
2013-04-29 18:58:00,74.4,10.6,29.67,WSW,243,0.0,0.0,8,0.00,,---,0.00,VWS V14.01,2013-04-30 00:58:00,
2013-04-29 18:59:00,74.4,10.6,29.67,WSW,243,0.0,0.0,8,0.00,,---,0.00,VWS V14.01,2013-04-30 00:59:00,
2013-04-29 19:00:00,74.4,10.9,29.67,WSW,243,0.0,0.0,9,0.00,,---,0.00,VWS V14.01,2013-04-30 01:00:00,
2013-04-29 19:01:00,74.4,11.7,29.67,WSW,243,0.0,0.0,9,0.00,,---,0.00,VWS V14.01,2013-04-30 01:01:00,
2013-04-29 19:02:00,74.5,10.7,29.66,WSW,243,0.0,0.0,8,0.00,,---,0.00,VWS V14.01,2013-04-30 01:02:00,
2013-04-29 19:03:00,74.4,10.9,29.67,WSW,243,0.0,0.0,9,0.00,,---,0.00,VWS V14.01,2013-04-30 01:03:00,
2013-04-29 19:04:00,74.4,10.6,29.66,WSW,243,0.0,0.0,8,0.00,,---,0.00,VWS V14.01,2013-04-30 01:04:00,
2013-04-29 19:05:00,74.4,11.2,29.67,WSW,243,0.0,0.0,9,0.00,,---,0.00,VWS V14.01,2013-04-30 01:05:00,
2013-04-29 19:06:00,74.3,10.6,29.66,WSW,243,0.0,0.0,8,0.00,,---,0.00,VWS V14.01,2013-04-30 01:06:00,
2013-04-29 19:07:00,74.4,10.6,29.66,WSW,243,0.0,0.0,8,0.00,,---,0.00,VWS V14.01,2013-04-30 01:07:00,
2013-04-29 19:08:00,74.4,9.9,29.66,WSW,243,0.0,0.0,8,0.00,,---,0.00,VWS V14.01,2013-04-30 01:08:00,
2013-04-29 19:09:00,74.3,10.1,29.66,WSW,243,0.0,0.0,8,0.00,,---,0.00,VWS V14.01,2013-04-30 01:09:00,
2013-04-29 19:10:00,74.3,10.3,29.66,WSW,243,0.0,0.0,8,0.00,,---,0.00,VWS V14.01,2013-04-30 01:10:00,
2013-04-29 19:11:00,74.3,9.8,29.66,WSW,243,0.0,0.0,8,0.00,,---,0.00,VWS V14.01,2013-04-30 01:11:00,
2013-04-29 19:12:00,74.4,10.9,29.66,WSW,243,0.0,0.0,9,0.00,,---,0.00,VWS V14.01,2013-04-30 01:12:00,
2013-04-29 19:13:00,74.2,10.0,29.66,WSW,243,0.0,0.0,8,0.00,,---,0.00,VWS V14.01,2013-04-30 01:13:00,
2013-04-29 19:14:00,74.2,10.5,29.67,WSW,243,0.0,0.0,8,0.00,,---,0.00,VWS V14.01,2013-04-30 01:14:00,
2013-04-29 19:15:00,74.1,10.4,29.66,WSW,243,0.0,0.0,8,0.00,,---,0.00,VWS V14.01,2013-04-30 01:15:00,
2013-04-29 19:16:00,74.1,10.4,29.66,WSW,243,0.0,0.0,8,0.00,,---,0.00,VWS V14.01,2013-04-30 01:16:00,
2013-04-29 19:17:00,74.3,10.3,29.66,WSW,243,0.0,0.0,8,0.00,,---,0.00,VWS V14.01,2013-04-30 01:17:00,
2013-04-29 19:18:00,73.9,11.8,29.66,WSW,243,0.0,0.0,9,0.00,,---,0.00,VWS V14.01,2013-04-30 01:18:00,
2013-04-29 19:19:00,73.9,12.3,29.66,WSW,243,0.0,0.0,9,0.00,,---,0.00,VWS V14.01,2013-04-30 01:19:00,
2013-04-29 19:20:00,73.8,13.4,29.66,WSW,243,0.0,0.0,10,0.00,,---,0.00,VWS V14.01,2013-04-30 01:20:00,
2013-04-29 19:21:00,73.8,14.1,29.66,WSW,243,0.0,0.0,10,0.00,,---,0.00,VWS V14.01,2013-04-30 01:21:00,
2013-04-29 19:22:00,74.2,10.5,29.66,WSW,243,0.0,0.0,8,0.00,,---,0.00,VWS V14.01,2013-04-30 01:22:00,
2013-04-29 19:23:00,73.6,15.3,29.66,WSW,243,0.0,0.0,11,0.00,,---,0.00,VWS V14.01,2013-04-30 01:23:00,
2013-04-29 19:24:00,73.5,15.8,29.66,WSW,243,0.0,0.0,11,0.00,,---,0.00,VWS V14.01,2013-04-30 01:24:00,
2013-04-29 19:25:00,73.5,16.4,29.66,WSW,243,0.0,0.0,11,0.00,,---,0.00,VWS V14.01,2013-04-30 01:25:00,
2013-04-29 19:26:00,73.4,16.6,29.66,WSW,243,0.0,0.0,11,0.00,,---,0.00,VWS V14.01,2013-04-30 01:26:00,
2013-04-29 19:27:00,73.3,16.5,29.66,WSW,243,0.0,0.0,11,0.00,,---,0.00,VWS V14.01,2013-04-30 01:27:00,
2013-04-29 19:28:00,73.3,16.7,29.66,WSW,243,0.0,0.0,12,0.00,,---,0.00,VWS V14.01,2013-04-30 01:28:00,
2013-04-29 19:29:00,73.2,16.8,29.66,WSW,243,0.0,0.0,12,0.00,,---,0.00,VWS V14.01,2013-04-30 01:29:00,
2013-04-29 19:30:00,73.1,16.9,29.66,WSW,243,0.0,0.0,12,0.00,,---,0.00,VWS V14.01,2013-04-30 01:30:00,
2013-04-29 19:31:00,73.0,16.6,29.66,WSW,243,0.0,0.0,12,0.00,,---,0.00,VWS V14.01,2013-04-30 01:31:00,
2013-04-29 19:32:00,72.9,17.0,29.66,WSW,243,0.0,0.0,12,0.00,,---,0.00,VWS V14.01,2013-04-30 01:32:00,
2013-04-29 19:33:00,72.8,17.5,29.66,WSW,243,0.0,0.0,12,0.00,,---,0.00,VWS V14.01,2013-04-30 01:33:00,
2013-04-29 19:34:00,72.7,17.4,29.66,WSW,243,0.0,0.0,12,0.00,,---,0.00,VWS V14.01,2013-04-30 01:34:00,
2013-04-29 19:35:00,72.6,18.4,29.66,WSW,243,0.0,0.0,13,0.00,,---,0.00,VWS V14.01,2013-04-30 01:35:00,
2013-04-29 19:36:00,72.5,18.4,29.66,WSW,243,0.0,0.0,13,0.00,,---,0.00,VWS V14.01,2013-04-30 01:36:00,
2013-04-29 19:37:00,72.4,19.4,29.66,West,271,4.7,4.7,13,0.00,,---,0.00,VWS V14.01,2013-04-30 01:37:00,
2013-04-29 19:38:00,72.3,18.2,29.66,WNW,284,0.0,0.0,13,0.00,,---,0.00,VWS V14.01,2013-04-30 01:38:00,
2013-04-29 19:39:00,72.1,18.2,29.66,WNW,284,0.0,0.0,13,0.00,,---,0.00,VWS V14.01,2013-04-30 01:39:00,
2013-04-29 19:40:00,72.0,19.2,29.66,WNW,284,0.0,0.0,13,0.00,,---,0.00,VWS V14.01,2013-04-30 01:40:00,
2013-04-29 19:41:00,71.9,19.6,29.66,WNW,284,0.0,0.0,14,0.00,,---,0.00,VWS V14.01,2013-04-30 01:41:00,
2013-04-29 19:42:00,71.9,19.8,29.66,WNW,284,0.0,0.0,14,0.00,,---,0.00,VWS V14.01,2013-04-30 01:42:00,
2013-04-29 19:43:00,71.7,19.8,29.66,WNW,284,0.0,0.0,14,0.00,,---,0.00,VWS V14.01,2013-04-30 01:43:00,
2013-04-29 19:44:00,71.6,19.9,29.66,WNW,284,0.0,0.0,14,0.00,,---,0.00,VWS V14.01,2013-04-30 01:44:00,
2013-04-29 19:45:00,71.5,19.7,29.66,WNW,284,0.0,0.0,14,0.00,,---,0.00,VWS V14.01,2013-04-30 01:45:00,
2013-04-29 19:46:00,71.5,19.5,29.66,WNW,284,0.0,0.0,14,0.00,,---,0.00,VWS V14.01,2013-04-30 01:46:00,
2013-04-29 19:47:00,71.4,19.4,29.66,WNW,284,0.0,0.0,14,0.00,,---,0.00,VWS V14.01,2013-04-30 01:47:00,
2013-04-29 19:48:00,71.3,19.5,29.66,WNW,284,0.0,0.0,14,0.00,,---,0.00,VWS V14.01,2013-04-30 01:48:00,
2013-04-29 19:49:00,71.2,19.4,29.66,WNW,284,0.0,0.0,14,0.00,,---,0.00,VWS V14.01,2013-04-30 01:49:00,
2013-04-29 19:50:00,71.2,19.3,29.66,WNW,284,0.0,0.0,14,0.00,,---,0.00,VWS V14.01,2013-04-30 01:50:00,
2013-04-29 19:51:00,71.1,18.3,29.66,WNW,284,0.0,0.0,13,0.00,,---,0.00,VWS V14.01,2013-04-30 01:51:00,
2013-04-29 19:52:00,71.0,18.9,29.66,WNW,284,0.0,0.0,14,0.00,,---,0.00,VWS V14.01,2013-04-30 01:52:00,
2013-04-29 19:53:00,71.0,18.9,29.66,WNW,284,0.0,0.0,14,0.00,,---,0.00,VWS V14.01,2013-04-30 01:53:00,
2013-04-29 19:54:00,70.9,18.7,29.66,WNW,284,0.0,0.0,14,0.00,,---,0.00,VWS V14.01,2013-04-30 01:54:00,
2013-04-29 19:55:00,70.8,17.9,29.66,WNW,284,0.0,0.0,13,0.00,,---,0.00,VWS V14.01,2013-04-30 01:55:00,
2013-04-29 19:56:00,70.7,18.9,29.66,WNW,284,0.0,0.0,14,0.00,,---,0.00,VWS V14.01,2013-04-30 01:56:00,
2013-04-29 19:57:00,70.7,17.7,29.66,WNW,284,0.0,0.0,13,0.00,,---,0.00,VWS V14.01,2013-04-30 01:57:00,
2013-04-29 19:58:00,70.6,17.6,29.66,WNW,284,0.0,0.0,13,0.00,,---,0.00,VWS V14.01,2013-04-30 01:58:00,
2013-04-29 19:59:00,70.6,17.6,29.66,WNW,284,0.0,0.0,13,0.00,,---,0.00,VWS V14.01,2013-04-30 01:59:00,
2013-04-29 20:00:00,70.6,17.2,29.66,WNW,284,0.0,0.0,13,0.00,,---,0.00,VWS V14.01,2013-04-30 02:00:00,
2013-04-29 20:01:00,70.6,16.7,29.66,WNW,284,0.0,0.0,13,0.00,,---,0.00,VWS V14.01,2013-04-30 02:01:00,
2013-04-29 20:02:00,70.5,16.2,29.66,WNW,284,0.0,0.0,12,0.00,,---,0.00,VWS V14.01,2013-04-30 02:02:00,
2013-04-29 20:03:00,70.5,15.9,29.66,WNW,284,0.0,0.0,12,0.00,,---,0.00,VWS V14.01,2013-04-30 02:03:00,
2013-04-29 20:04:00,70.5,15.9,29.66,WNW,284,0.0,0.0,12,0.00,,---,0.00,VWS V14.01,2013-04-30 02:04:00,
2013-04-29 20:05:00,70.5,15.9,29.66,WNW,284,0.0,0.0,12,0.00,,---,0.00,VWS V14.01,2013-04-30 02:05:00,
2013-04-29 20:06:00,70.4,15.2,29.66,WNW,284,0.0,0.0,12,0.00,,---,0.00,VWS V14.01,2013-04-30 02:06:00,
2013-04-29 20:07:00,70.4,15.2,29.66,WNW,284,0.0,0.0,12,0.00,,---,0.00,VWS V14.01,2013-04-30 02:07:00,
2013-04-29 20:08:00,70.4,15.4,29.66,WNW,284,0.0,0.0,12,0.00,,---,0.00,VWS V14.01,2013-04-30 02:08:00,
2013-04-29 20:09:00,70.4,15.0,29.66,WNW,284,0.0,0.0,12,0.00,,---,0.00,VWS V14.01,2013-04-30 02:09:00,
2013-04-29 20:10:00,70.4,16.2,29.66,WNW,284,0.0,0.0,12,0.00,,---,0.00,VWS V14.01,2013-04-30 02:10:00,
2013-04-29 20:11:00,70.4,16.5,29.66,WNW,284,0.0,0.0,13,0.00,,---,0.00,VWS V14.01,2013-04-30 02:11:00,
2013-04-29 20:12:00,70.4,17.2,29.66,WNW,284,0.0,0.0,13,0.00,,---,0.00,VWS V14.01,2013-04-30 02:12:00,
2013-04-29 20:13:00,70.4,17.6,29.66,WNW,284,0.0,0.0,13,0.00,,---,0.00,VWS V14.01,2013-04-30 02:13:00,
2013-04-29 20:14:00,70.3,17.3,29.66,WNW,284,0.0,0.0,13,0.00,,---,0.00,VWS V14.01,2013-04-30 02:14:00,
2013-04-29 20:15:00,70.3,18.5,29.66,WNW,284,0.0,0.0,14,0.00,,---,0.00,VWS V14.01,2013-04-30 02:15:00,
2013-04-29 20:16:00,70.2,19.0,29.66,WNW,284,0.0,0.0,14,0.00,,---,0.00,VWS V14.01,2013-04-30 02:16:00,
2013-04-29 20:17:00,70.2,18.6,29.66,WNW,284,0.0,0.0,14,0.00,,---,0.00,VWS V14.01,2013-04-30 02:17:00,
2013-04-29 20:18:00,70.1,18.9,29.66,WNW,284,0.0,0.0,14,0.00,,---,0.00,VWS V14.01,2013-04-30 02:18:00,
2013-04-29 20:19:00,70.0,18.3,29.66,WNW,284,0.0,0.0,14,0.00,,---,0.00,VWS V14.01,2013-04-30 02:19:00,
2013-04-29 20:20:00,70.0,18.3,29.66,WNW,284,0.0,0.0,14,0.00,,---,0.00,VWS V14.01,2013-04-30 02:20:00,
2013-04-29 20:21:00,70.0,18.8,29.66,WNW,284,0.0,0.0,14,0.00,,---,0.00,VWS V14.01,2013-04-30 02:21:00,
2013-04-29 20:22:00,69.9,19.2,29.67,WNW,284,0.0,0.0,14,0.00,,---,0.00,VWS V14.01,2013-04-30 02:22:00,
2013-04-29 20:23:00,69.6,20.9,29.66,WNW,284,0.0,6.0,16,0.00,,---,99.99,VWS V14.01,2013-04-30 02:23:00,
2013-04-29 20:24:00,10.3,-27.4,0.00,North,0,0.0,6.0,16,0.00,,---,0.00,VWS V14.01,2013-04-30 02:24:00,
2013-04-29 20:25:00,69.8,21.0,29.66,WNW,284,0.0,14.7,16,0.00,,---,99.99,VWS V14.01,2013-04-30 02:25:00,
2013-04-29 20:26:00,69.6,20.7,29.66,WNW,284,0.0,6.0,16,0.00,,---,0.00,VWS V14.01,2013-04-30 02:26:00,
2013-04-29 20:27:00,69.6,15.3,29.66,WNW,284,0.0,14.7,12,1.39,,---,0.97,VWS V14.01,2013-04-30 02:27:00,
2013-04-29 20:28:00,69.5,20.9,29.66,WNW,284,0.0,6.0,16,0.00,,---,0.00,VWS V14.01,2013-04-30 02:28:00,
2013-04-29 20:29:00,69.4,21.0,29.66,WNW,284,0.0,14.9,16,0.00,,---,0.00,VWS V14.01,2013-04-30 02:29:00,
2013-04-29 20:30:00,69.3,20.9,29.66,WNW,284,0.0,6.0,16,0.00,,---,0.00,VWS V14.01,2013-04-30 02:30:00,
2013-04-29 20:31:00,69.1,20.2,29.66,WNW,284,0.0,0.0,15,0.00,,---,0.97,VWS V14.01,2013-04-30 02:31:00,
2013-04-29 20:32:00,69.1,21.1,29.66,WNW,284,0.0,6.0,16,0.00,,---,0.97,VWS V14.01,2013-04-30 02:32:00,
2013-04-29 20:33:00,69.0,21.6,29.66,WNW,284,0.0,15.1,16,0.00,,---,0.00,VWS V14.01,2013-04-30 02:33:00,
2013-04-29 20:34:00,69.0,21.8,29.66,WNW,284,0.0,13.0,17,0.00,,---,0.97,VWS V14.01,2013-04-30 02:34:00,
2013-04-29 20:35:00,68.9,21.5,29.66,WNW,284,0.0,15.2,16,0.00,,---,0.00,VWS V14.01,2013-04-30 02:35:00,
2013-04-29 20:36:00,68.9,0.0,29.66,WNW,284,0.0,15.2,0,0.00,,---,99.99,VWS V14.01,2013-04-30 02:36:00,
2013-04-29 20:37:00,68.8,21.4,29.66,WNW,284,0.0,13.2,16,0.00,,---,0.97,VWS V14.01,2013-04-30 02:37:00,
2013-04-29 20:38:00,68.8,21.4,29.66,WNW,284,0.0,15.2,16,0.00,,---,0.00,VWS V14.01,2013-04-30 02:38:00,
2013-04-29 20:39:00,68.6,21.5,29.66,WNW,292,0.0,15.3,17,0.00,,---,0.00,VWS V14.01,2013-04-30 02:39:00,
2013-04-29 20:40:00,68.6,16.9,29.66,WNW,292,0.0,15.2,14,0.00,,---,0.00,VWS V14.01,2013-04-30 02:40:00,
2013-04-29 20:41:00,68.5,20.4,29.66,WNW,292,0.0,14.9,16,0.00,,---,0.00,VWS V14.01,2013-04-30 02:41:00,
2013-04-29 20:42:00,10.3,-27.6,0.00,North,0,14.6,14.7,16,0.00,,---,0.00,VWS V14.01,2013-04-30 02:42:00,
2013-04-29 20:43:00,68.5,19.2,29.66,WNW,292,0.0,14.5,15,0.00,,---,0.00,VWS V14.01,2013-04-30 02:43:00,
2013-04-29 20:44:00,68.4,19.4,29.66,WNW,292,0.0,6.0,15,0.00,,---,0.00,VWS V14.01,2013-04-30 02:44:00,
2013-04-29 20:45:00,68.4,19.8,29.66,WNW,292,0.0,11.6,16,0.00,,---,0.97,VWS V14.01,2013-04-30 02:45:00,
2013-04-29 20:46:00,68.4,19.3,29.66,WNW,292,0.0,14.4,15,0.00,,---,0.00,VWS V14.01,2013-04-30 02:46:00,
2013-04-29 20:47:00,68.5,18.4,29.66,WNW,292,0.0,6.0,15,0.00,,---,0.00,VWS V14.01,2013-04-30 02:47:00,
2013-04-29 20:48:00,68.5,-10.7,29.66,WNW,292,0.0,14.0,4,0.00,,---,0.00,VWS V14.01,2013-04-30 02:48:00,
2013-04-29 20:49:00,68.5,18.1,29.66,WNW,292,0.0,6.0,14,0.00,,---,0.00,VWS V14.01,2013-04-30 02:49:00,
2013-04-29 20:50:00,68.6,18.7,29.66,WNW,292,0.0,6.0,15,0.00,,---,0.97,VWS V14.01,2013-04-30 02:50:00,
2013-04-29 20:51:00,75.4,23.6,0.00,East,87,0.0,6.0,14,0.00,,---,0.00,VWS V14.01,2013-04-30 02:51:00,
2013-04-29 20:52:00,68.7,17.6,29.66,WNW,292,0.0,6.0,14,0.00,,---,0.00,VWS V14.01,2013-04-30 02:52:00,
2013-04-29 20:53:00,10.3,-29.7,0.00,North,0,13.5,13.5,14,0.00,,---,0.00,VWS V14.01,2013-04-30 02:53:00,
2013-04-29 20:54:00,68.8,18.0,29.66,WNW,292,0.0,6.0,14,0.00,,---,0.00,VWS V14.01,2013-04-30 02:54:00,
2013-04-29 20:55:00,68.9,18.1,0.00,WNW,292,0.0,6.0,14,0.00,,---,0.97,VWS V14.01,2013-04-30 02:55:00,
2013-04-29 20:56:00,68.9,18.4,29.67,WNW,292,0.0,0.0,14,0.00,,---,0.00,VWS V14.01,2013-04-30 02:56:00,
2013-04-29 20:57:00,69.0,17.7,29.67,WNW,292,0.0,6.0,14,0.00,,---,0.00,VWS V14.01,2013-04-30 02:57:00,
2013-04-29 20:58:00,10.3,-28.7,0.00,North,0,14.0,14.0,15,0.00,,---,0.00,VWS V14.01,2013-04-30 02:58:00,
2013-04-29 20:59:00,69.0,18.7,29.48,WNW,292,0.0,14.0,14,0.00,,---,99.99,VWS V14.01,2013-04-30 02:59:00,
2013-04-29 21:00:00,69.0,19.5,29.67,WNW,292,0.0,6.0,15,0.00,,---,0.00,VWS V14.01,2013-04-30 03:00:00,
2013-04-29 21:01:00,69.0,19.3,29.67,WNW,292,0.0,6.0,15,0.00,,---,0.00,VWS V14.01,2013-04-30 03:01:00,
2013-04-29 21:02:00,69.1,18.6,29.67,WNW,292,0.0,14.2,14,0.00,,---,0.00,VWS V14.01,2013-04-30 03:02:00,
2013-04-29 21:03:00,10.3,-28.5,0.00,North,0,14.1,14.1,15,0.00,,---,0.00,VWS V14.01,2013-04-30 03:03:00,
2013-04-29 21:04:00,69.1,17.9,29.67,WNW,292,0.0,14.9,14,0.00,,---,0.00,VWS V14.01,2013-04-30 03:04:00,
2013-04-29 21:05:00,69.2,19.0,29.67,WNW,292,0.0,6.0,15,0.00,,---,0.00,VWS V14.01,2013-04-30 03:05:00,
2013-04-29 21:06:00,75.3,23.9,0.00,East,91,0.0,15.0,15,0.00,,---,99.99,VWS V14.01,2013-04-30 03:06:00,
2013-04-29 21:07:00,69.2,18.8,29.67,West,280,0.0,6.0,14,0.00,,---,0.00,VWS V14.01,2013-04-30 03:07:00,
2013-04-29 21:08:00,75.4,23.9,0.00,West,280,6.0,6.0,15,0.00,,---,0.00,VWS V14.01,2013-04-30 03:08:00,
2013-04-29 21:09:00,69.2,19.1,29.67,West,280,0.0,6.0,15,0.00,,---,0.00,VWS V14.01,2013-04-30 03:09:00,
2013-04-29 21:10:00,69.2,19.3,29.67,West,280,0.0,0.0,15,0.00,,---,0.00,VWS V14.01,2013-04-30 03:10:00,
2013-04-29 21:11:00,69.3,19.7,29.68,West,280,0.0,14.2,15,0.00,,---,0.00,VWS V14.01,2013-04-30 03:11:00,
2013-04-29 21:12:00,69.3,19.5,29.67,West,280,0.0,6.0,15,0.00,,---,0.00,VWS V14.01,2013-04-30 03:12:00,
2013-04-29 21:13:00,69.2,18.8,29.68,West,280,0.0,6.0,14,0.00,,---,0.00,VWS V14.01,2013-04-30 03:13:00,
2013-04-29 21:14:00,70.0,18.3,29.66,WNW,284,0.0,0.0,14,0.00,,---,0.00,VWS V14.01,2013-04-30 03:14:00,
2013-04-29 21:15:00,69.2,19.0,29.68,West,280,0.0,6.0,15,0.00,,---,0.00,VWS V14.01,2013-04-30 03:15:00,
2013-04-29 21:16:00,69.2,18.3,29.68,West,280,0.0,13.9,14,0.00,,---,0.97,VWS V14.01,2013-04-30 03:16:00,
2013-04-29 21:17:00,69.1,17.9,29.68,West,280,0.0,6.0,14,0.00,,---,0.00,VWS V14.01,2013-04-30 03:17:00,
2013-04-29 21:18:00,69.0,17.5,29.48,West,280,0.0,0.0,14,0.00,,---,99.99,VWS V14.01,2013-04-30 03:18:00,
2013-04-29 21:19:00,69.8,20.7,29.66,WNW,284,0.0,0.0,15,0.00,,---,0.00,VWS V14.01,2013-04-30 03:19:00,
2013-04-29 21:20:00,69.0,18.0,29.68,West,280,0.0,7.3,14,0.00,,---,0.00,VWS V14.01,2013-04-30 03:20:00,
2013-04-29 21:21:00,68.8,17.4,29.68,West,280,0.0,13.6,14,0.00,,---,0.00,VWS V14.01,2013-04-30 03:21:00,
2013-04-29 21:22:00,68.7,17.6,29.68,West,280,0.0,13.7,14,0.21,,---,0.00,VWS V14.01,2013-04-30 03:22:00,
2013-04-29 21:23:00,68.7,17.3,29.68,West,280,0.0,13.6,14,0.00,,---,0.00,VWS V14.01,2013-04-30 03:23:00,
2013-04-29 21:24:00,68.7,17.3,29.68,West,280,0.0,4.2,14,0.00,,---,1.89,VWS V14.01,2013-04-30 03:24:00,
2013-04-29 21:25:00,68.6,19.1,29.68,West,280,0.0,0.0,15,0.00,,---,0.00,VWS V14.01,2013-04-30 03:25:00,
2013-04-29 21:26:00,68.5,19.5,29.68,West,280,0.0,0.3,15,0.00,,---,2.33,VWS V14.01,2013-04-30 03:26:00,
2013-04-29 21:27:00,68.4,18.8,29.68,West,280,0.0,0.0,15,0.00,,---,0.00,VWS V14.01,2013-04-30 03:27:00,
2013-04-29 21:28:00,68.4,18.7,29.68,West,280,0.0,0.0,15,0.00,,---,0.00,VWS V14.01,2013-04-30 03:28:00,
2013-04-29 21:29:00,68.3,17.6,29.68,West,280,0.0,0.0,14,0.00,,---,0.00,VWS V14.01,2013-04-30 03:29:00,
2013-04-29 21:30:00,68.2,17.5,29.68,West,280,0.0,11.6,14,0.00,,---,0.00,VWS V14.01,2013-04-30 03:30:00,
2013-04-29 21:31:00,68.1,17.8,29.68,West,280,0.0,0.1,14,0.00,,---,0.00,VWS V14.01,2013-04-30 03:31:00,
2013-04-29 21:32:00,68.1,18.3,29.69,West,280,0.0,11.4,15,0.00,,---,0.00,VWS V14.01,2013-04-30 03:32:00,
2013-04-29 21:33:00,68.0,18.8,29.68,West,280,0.0,0.0,15,0.00,,---,0.00,VWS V14.01,2013-04-30 03:33:00,
2013-04-29 21:34:00,68.0,19.0,29.68,West,280,0.0,0.0,15,0.00,,---,0.00,VWS V14.01,2013-04-30 03:34:00,
2013-04-29 21:35:00,67.9,18.3,29.68,West,280,0.0,0.0,15,0.00,,---,0.00,VWS V14.01,2013-04-30 03:35:00,
2013-04-29 21:36:00,68.0,18.5,29.68,West,280,0.0,0.1,15,0.00,,---,0.00,VWS V14.01,2013-04-30 03:36:00,
2013-04-29 21:37:00,68.0,18.8,29.68,West,280,0.0,0.0,15,0.00,,---,0.00,VWS V14.01,2013-04-30 03:37:00,
2013-04-29 21:38:00,21.4,0.0,0.35,West,280,4.2,4.2,0,0.00,,---,0.00,VWS V14.01,2013-04-30 03:38:00,
2013-04-29 21:39:00,67.9,18.0,29.68,West,280,0.0,14.1,15,0.00,,---,0.00,VWS V14.01,2013-04-30 03:39:00,
2013-04-29 21:40:00,67.8,0.0,29.69,West,280,0.0,14.1,0,0.00,,---,0.00,VWS V14.01,2013-04-30 03:40:00,
2013-04-29 21:41:00,67.8,18.2,29.68,West,280,0.0,6.0,15,0.00,,---,0.00,VWS V14.01,2013-04-30 03:41:00,
2013-04-29 21:42:00,67.7,18.3,29.68,West,280,0.0,14.2,15,0.00,,---,0.00,VWS V14.01,2013-04-30 03:42:00,
2013-04-29 21:43:00,67.6,19.0,29.68,West,280,0.0,1.4,15,0.00,,---,0.00,VWS V14.01,2013-04-30 03:43:00,
2013-04-29 21:44:00,67.6,19.1,29.68,West,280,0.0,7.3,16,0.00,,---,13.04,VWS V14.01,2013-04-30 03:44:00,
2013-04-29 21:45:00,67.5,19.3,29.68,West,280,0.0,0.0,16,0.00,,---,0.00,VWS V14.01,2013-04-30 03:45:00,
2013-04-29 21:46:00,67.4,20.0,29.68,West,280,0.0,1.6,16,0.00,,---,0.00,VWS V14.01,2013-04-30 03:46:00,
2013-04-29 21:47:00,67.3,20.3,29.68,West,280,0.0,6.0,16,0.00,,---,0.00,VWS V14.01,2013-04-30 03:47:00,
2013-04-29 21:48:00,67.3,20.6,29.68,West,280,0.0,0.1,17,0.00,,---,2.47,VWS V14.01,2013-04-30 03:48:00,
2013-04-29 21:49:00,67.2,21.1,29.68,West,280,0.0,0.1,17,0.00,,---,0.00,VWS V14.01,2013-04-30 03:49:00,
2013-04-29 21:50:00,67.1,21.1,29.68,West,280,0.0,6.0,17,0.00,,---,0.00,VWS V14.01,2013-04-30 03:50:00,
2013-04-29 21:51:00,67.1,21.0,29.68,West,280,0.0,0.0,17,0.00,,---,0.00,VWS V14.01,2013-04-30 03:51:00,
2013-04-29 21:52:00,67.0,-11.7,29.68,West,280,0.0,15.8,4,0.00,,---,0.00,VWS V14.01,2013-04-30 03:52:00,
2013-04-29 21:53:00,66.9,21.5,29.68,West,280,0.0,0.1,18,0.00,,---,0.00,VWS V14.01,2013-04-30 03:53:00,
2013-04-29 21:54:00,66.9,21.9,29.68,West,280,0.0,0.2,18,0.00,,---,0.00,VWS V14.01,2013-04-30 03:54:00,
2013-04-29 21:55:00,66.9,22.3,29.69,West,280,0.0,2.1,18,0.00,,---,0.00,VWS V14.01,2013-04-30 03:55:00,
2013-04-29 21:56:00,66.9,22.3,29.68,West,280,0.0,0.0,18,0.00,,---,0.00,VWS V14.01,2013-04-30 03:56:00,
2013-04-29 21:57:00,66.8,22.9,29.68,West,280,0.0,0.7,19,0.00,,---,0.00,VWS V14.01,2013-04-30 03:57:00,
2013-04-29 21:58:00,66.8,23.0,29.68,West,280,0.0,10.6,19,0.00,,---,0.00,VWS V14.01,2013-04-30 03:58:00,
2013-04-29 21:59:00,66.7,23.2,29.48,West,280,0.0,0.0,19,0.00,,---,0.00,VWS V14.01,2013-04-30 03:59:00,
2013-04-29 22:00:00,66.6,23.8,29.69,West,280,0.0,6.0,20,0.00,,---,0.00,VWS V14.01,2013-04-30 04:00:00,
2013-04-29 22:01:00,66.6,24.0,29.69,West,280,0.0,6.0,20,0.00,,---,0.00,VWS V14.01,2013-04-30 04:01:00,
2013-04-29 22:02:00,66.6,24.1,29.68,West,280,0.0,1.4,20,0.00,,---,0.00,VWS V14.01,2013-04-30 04:02:00,
2013-04-29 22:03:00,66.5,52.2,29.68,West,280,0.0,0.0,60,0.00,,---,2.79,VWS V14.01,2013-04-30 04:03:00,
2013-04-29 22:04:00,66.4,23.9,29.68,West,280,0.0,1.4,20,0.00,,---,0.00,VWS V14.01,2013-04-30 04:04:00,
2013-04-29 22:05:00,66.3,23.6,29.68,West,280,0.0,0.0,20,0.00,,---,99.99,VWS V14.01,2013-04-30 04:05:00,
2013-04-29 22:06:00,66.3,23.6,29.68,West,280,0.0,2.8,20,0.00,,---,0.00,VWS V14.01,2013-04-30 04:06:00,
2013-04-29 22:07:00,66.2,23.6,29.68,West,280,0.0,1.3,20,0.00,,---,0.00,VWS V14.01,2013-04-30 04:07:00,
2013-04-29 22:08:00,66.2,23.6,29.68,West,280,0.0,12.4,20,0.00,,---,0.00,VWS V14.01,2013-04-30 04:08:00,
2013-04-29 22:09:00,66.0,23.5,29.68,West,280,0.0,0.0,20,0.00,,---,0.00,VWS V14.01,2013-04-30 04:09:00,
2013-04-29 22:10:00,65.9,23.7,29.68,West,280,0.0,3.0,20,0.00,,---,0.00,VWS V14.01,2013-04-30 04:10:00,
2013-04-29 22:11:00,65.8,23.6,29.68,West,280,0.0,0.0,20,0.00,,---,0.00,VWS V14.01,2013-04-30 04:11:00,
2013-04-29 22:12:00,65.8,23.8,29.68,West,280,0.0,10.0,20,0.00,,---,13.32,VWS V14.01,2013-04-30 04:12:00,
2013-04-29 22:13:00,65.7,23.8,29.68,West,280,0.0,3.2,20,0.00,,---,0.00,VWS V14.01,2013-04-30 04:13:00,
2013-04-29 22:14:00,65.8,23.3,29.68,West,280,0.0,9.9,20,0.00,,---,0.00,VWS V14.01,2013-04-30 04:14:00,
2013-04-29 22:15:00,18.4,9.9,35.82,North,0,0.0,1.2,69,0.00,,---,13.34,VWS V14.01,2013-04-30 04:15:00,
2013-04-29 22:16:00,65.6,22.8,29.68,West,280,0.0,7.3,19,0.00,,---,0.00,VWS V14.01,2013-04-30 04:16:00,
2013-04-29 22:17:00,65.6,22.9,29.68,West,280,0.0,0.0,20,0.00,,---,0.00,VWS V14.01,2013-04-30 04:17:00,
2013-04-29 22:18:00,65.6,22.9,29.68,West,280,0.0,7.3,20,0.00,,---,0.00,VWS V14.01,2013-04-30 04:18:00,
2013-04-29 22:19:00,65.6,22.5,29.68,West,280,0.0,1.1,19,0.00,,---,0.00,VWS V14.01,2013-04-30 04:19:00,
2013-04-29 22:28:00,68.4,18.8,29.68,West,280,0.0,0.0,15,0.00,,---,0.00,VWS V14.01,2013-04-30 04:28:00,
2013-04-29 22:30:00,68.1,18.1,29.69,West,280,0.0,11.5,15,0.00,,---,7.69,VWS V14.01,2013-04-30 04:30:00,
2013-04-29 22:43:00,68.4,19.0,29.68,West,280,0.0,0.4,15,1.02,,---,99.99,VWS V14.01,2013-04-30 04:43:00,
2013-04-29 22:58:00,67.9,18.1,29.68,West,280,0.0,14.1,15,0.00,,---,12.98,VWS V14.01,2013-04-30 04:58:00,
2013-04-29 23:18:00,66.8,23.2,29.69,West,280,0.0,0.0,19,0.00,,---,13.18,VWS V14.01,2013-04-30 05:18:00,